IW9BHU-13 Weather Reports


time (UTC)temp
C
wind
direction
speed
KPH
gust
KPH
rain 1hr
cm
rain 24hr
cm
rain mn
cm
humidity
%
barometer
mb
20260507103705 26 209 11.3 33.8 0.00 0.00 0.00 34 1008.0
20260507103604 26 208 11.3 33.8 0.00 0.00 0.00 34 1008.0
20260507103505 26 207 11.3 33.8 0.00 0.00 0.00 34 1008.0
20260507103305 26 203 11.3 33.8 0.00 0.00 0.00 35 1008.0
20260507103207 26 202 11.3 33.8 0.00 0.00 0.00 34 1008.0
20260507103106 26 200 11.3 33.8 0.00 0.00 0.00 34 1008.0
20260507102905 26 198 11.3 29.0 0.00 0.00 0.00 33 1007.9
20260507102810 26 200 11.3 29.0 0.00 0.00 0.00 33 1007.9
20260507102705 26 200 11.3 29.0 0.00 0.00 0.00 32 1007.9
20260507102604 26 203 11.3 29.0 0.00 0.00 0.00 32 1007.9
20260507102504 26 204 11.3 29.0 0.00 0.00 0.00 33 1008.1
20260507102404 26 205 11.3 29.0 0.00 0.00 0.00 33 1008.1
20260507102307 26 206 11.3 29.0 0.00 0.00 0.00 33 1008.0
20260507102205 26 207 11.3 29.0 0.00 0.00 0.00 33 1008.0
20260507102107 26 209 11.3 29.0 0.00 0.00 0.00 33 1008.0
20260507102007 26 210 11.3 27.4 0.00 0.00 0.00 33 1008.0
20260507101906 26 207 11.3 27.4 0.00 0.00 0.00 34 1008.0
20260507101806 26 206 11.3 24.1 0.00 0.00 0.00 34 1007.8
20260507101705 26 204 11.3 29.0 0.00 0.00 0.00 34 1007.8
20260507101611 26 204 11.3 29.0 0.00 0.00 0.00 34 1008.0
20260507101504 26 203 11.3 29.0 0.00 0.00 0.00 33 1008.0
20260507101404 26 202 11.3 29.0 0.00 0.00 0.00 33 1008.0
20260507101304 26 199 11.3 29.0 0.00 0.00 0.00 34 1008.1
20260507101205 26 198 11.3 29.0 0.00 0.00 0.00 34 1008.1
20260507101104 26 199 11.3 29.0 0.00 0.00 0.00 34 1008.1
20260507101007 26 196 11.3 29.0 0.00 0.00 0.00 34 1008.1
20260507100905 26 199 11.3 29.0 0.00 0.00 0.00 33 1008.1
20260507100804 26 201 11.3 29.0 0.00 0.00 0.00 33 1008.1
20260507100705 26 207 11.3 27.4 0.00 0.00 0.00 33 1008.2
20260507100604 26 204 11.3 27.4 0.00 0.00 0.00 33 1008.2
20260507100504 26 204 11.3 27.4 0.00 0.00 0.00 33 1008.1
20260507100405 26 205 11.3 27.4 0.00 0.00 0.00 33 1008.1
20260507100305 26 207 11.3 24.1 0.00 0.00 0.00 33 1008.1
20260507100204 26 205 11.3 25.7 0.00 0.00 0.00 33 1008.3
20260507100106 26 205 11.3 25.7 0.00 0.00 0.00 33 1008.3
20260507100005 26 208 11.3 25.7 0.00 0.00 0.00 34 1008.5
20260507095904 26 207 11.3 25.7 0.00 0.00 0.00 34 1008.5
20260507095804 26 204 11.3 25.7 0.00 0.00 0.00 34 1008.5
20260507095705 26 200 11.3 25.7 0.00 0.00 0.00 34 1008.5
20260507095604 26 200 11.3 25.7 0.00 0.00 0.00 34 1008.5
20260507095505 26 198 11.3 25.7 0.00 0.00 0.00 34 1008.5
20260507095405 26 201 11.3 25.7 0.00 0.00 0.00 34 1008.5
20260507095306 26 202 11.3 25.7 0.00 0.00 0.00 34 1008.4
20260507095204 26 203 11.3 25.7 0.00 0.00 0.00 34 1008.4
20260507095104 26 201 11.3 25.7 0.00 0.00 0.00 34 1008.4
20260507095005 26 199 11.3 25.7 0.00 0.00 0.00 34 1008.4
20260507094904 26 197 11.3 25.7 0.00 0.00 0.00 34 1008.5
20260507094804 26 200 11.3 25.7 0.00 0.00 0.00 33 1008.5
20260507094704 26 202 11.3 25.7 0.00 0.00 0.00 34 1008.3
20260507094606 26 203 11.3 25.7 0.00 0.00 0.00 34 1008.3
20260507094504 26 202 11.3 25.7 0.00 0.00 0.00 34 1008.4
20260507094406 26 200 11.3 24.1 0.00 0.00 0.00 34 1008.4
20260507094311 26 199 11.3 24.1 0.00 0.00 0.00 33 1008.4
20260507094235 26 197 11.3 24.1 0.00 0.00 0.00 34 1008.4
20260507094128 26 198 11.3 24.1 0.00 0.00 0.00 34 1008.4
20260507094035 25 198 11.3 24.1 0.00 0.00 0.00 35 1008.4
20260507093928 25 199 11.3 24.1 0.00 0.00 0.00 35 1008.4
20260507093834 25 200 11.3 24.1 0.00 0.00 0.00 35 1008.4
20260507093722 25 202 11.3 24.1 0.00 0.00 0.00 35 1008.4
20260507093627 25 203 11.3 24.1 0.00 0.00 0.00 35 1008.4
20260507093526 25 205 11.3 24.1 0.00 0.00 0.00 34 1008.4
20260507093418 25 206 11.3 22.5 0.00 0.00 0.00 35 1008.5
20260507093324 25 206 11.3 25.7 0.00 0.00 0.00 35 1008.5
20260507093228 25 210 11.3 25.7 0.00 0.00 0.00 35 1008.5
20260507093129 25 205 11.3 25.7 0.00 0.00 0.00 35 1008.5
20260507093015 25 206 11.3 25.7 0.00 0.00 0.00 35 1008.4
20260507092904 25 210 11.3 25.7 0.00 0.00 0.00 35 1008.4
20260507092804 25 209 11.3 30.6 0.00 0.00 0.00 35 1008.4
20260507092704 25 208 11.3 30.6 0.00 0.00 0.00 35 1008.5
20260507092604 25 206 11.3 30.6 0.00 0.00 0.00 35 1008.4
20260507092505 25 204 11.3 30.6 0.00 0.00 0.00 35 1008.4
20260507092404 25 205 11.3 30.6 0.00 0.00 0.00 35 1008.4
20260507092306 25 205 9.7 30.6 0.00 0.00 0.00 35 1008.4
20260507092204 25 205 9.7 30.6 0.00 0.00 0.00 35 1008.4
20260507092106 25 208 9.7 30.6 0.00 0.00 0.00 35 1008.4
20260507092007 25 210 9.7 30.6 0.00 0.00 0.00 35 1008.4
20260507091906 25 208 9.7 30.6 0.00 0.00 0.00 35 1008.4
20260507091808 25 206 9.7 29.0 0.00 0.00 0.00 35 1008.4
20260507091705 25 207 9.7 29.0 0.00 0.00 0.00 35 1008.4
20260507091606 25 209 9.7 20.9 0.00 0.00 0.00 36 1008.3
20260507091504 25 208 9.7 20.9 0.00 0.00 0.00 36 1008.3
20260507091403 25 209 9.7 20.9 0.00 0.00 0.00 35 1008.4
20260507091304 25 207 9.7 25.7 0.00 0.00 0.00 35 1008.4
20260507091204 25 206 9.7 25.7 0.00 0.00 0.00 35 1008.4
20260507091104 25 201 9.7 25.7 0.00 0.00 0.00 35 1008.4
20260507091005 25 200 9.7 25.7 0.00 0.00 0.00 35 1008.4
20260507090904 25 198 9.7 25.7 0.00 0.00 0.00 36 1008.5
20260507090804 25 201 9.7 25.7 0.00 0.00 0.00 36 1008.5
20260507090704 25 202 9.7 25.7 0.00 0.00 0.00 36 1008.5
20260507090606 25 201 9.7 25.7 0.00 0.00 0.00 36 1008.5
20260507090504 25 204 9.7 25.7 0.00 0.00 0.00 36 1008.5
20260507090404 25 204 9.7 25.7 0.00 0.00 0.00 37 1008.5
20260507090306 25 204 9.7 24.1 0.00 0.00 0.00 37 1008.5
20260507090206 25 201 9.7 29.0 0.00 0.00 0.00 37 1008.5
20260507090105 25 205 9.7 29.0 0.00 0.00 0.00 37 1008.6
20260507090005 25 203 9.7 29.0 0.00 0.00 0.00 37 1008.6
20260507085904 25 202 9.7 29.0 0.00 0.00 0.00 38 1008.6
20260507085804 25 199 9.7 29.0 0.00 0.00 0.00 38 1008.6
20260507085705 25 201 9.7 29.0 0.00 0.00 0.00 38 1008.6
20260507085605 25 202 9.7 29.0 0.00 0.00 0.00 38 1008.6
20260507085505 25 202 9.7 29.0 0.00 0.00 0.00 38 1008.7
20260507085405 25 202 9.7 29.0 0.00 0.00 0.00 38 1008.7
20260507085306 25 204 9.7 29.0 0.00 0.00 0.00 38 1008.6
20260507085205 25 203 8.0 19.3 0.00 0.00 0.00 38 1008.6
20260507085105 25 202 8.0 19.3 0.00 0.00 0.00 38 1008.7
20260507085004 25 202 8.0 19.3 0.00 0.00 0.00 38 1008.7
20260507084914 25 202 8.0 19.3 0.00 0.00 0.00 38 1008.7
20260507084806 25 204 8.0 19.3 0.00 0.00 0.00 38 1008.8
20260507084706 25 204 8.0 19.3 0.00 0.00 0.00 38 1008.8
20260507084605 25 201 8.0 19.3 0.00 0.00 0.00 38 1008.8
20260507084504 25 203 8.0 19.3 0.00 0.00 0.00 39 1008.9
20260507084404 25 200 8.0 17.7 0.00 0.00 0.00 39 1008.9
20260507084305 25 199 8.0 19.3 0.00 0.00 0.00 39 1008.8
20260507084205 25 201 8.0 19.3 0.00 0.00 0.00 39 1008.9
20260507084105 25 201 8.0 19.3 0.00 0.00 0.00 40 1008.9
20260507084005 25 201 8.0 19.3 0.00 0.00 0.00 40 1009.0
20260507083905 25 204 8.0 19.3 0.00 0.00 0.00 40 1009.0
20260507083805 25 205 8.0 19.3 0.00 0.00 0.00 39 1008.9
20260507083705 25 203 8.0 19.3 0.00 0.00 0.00 39 1008.8
20260507083606 24 202 8.0 19.3 0.00 0.00 0.00 39 1008.8
20260507083507 24 200 8.0 22.5 0.00 0.00 0.00 39 1008.8
20260507083406 24 202 8.0 22.5 0.00 0.00 0.00 39 1008.8
20260507083304 24 202 9.7 22.5 0.00 0.00 0.00 39 1008.9
20260507083205 24 204 9.7 22.5 0.00 0.00 0.00 40 1008.9
20260507083108 24 205 9.7 22.5 0.00 0.00 0.00 40 1008.9
20260507083005 24 205 9.7 22.5 0.00 0.00 0.00 40 1009.0
20260507082904 24 202 9.7 22.5 0.00 0.00 0.00 41 1009.0
20260507082805 24 200 9.7 22.5 0.00 0.00 0.00 41 1009.0
20260507082704 24 200 9.7 22.5 0.00 0.00 0.00 41 1008.9
20260507082605 24 201 9.7 22.5 0.00 0.00 0.00 40 1008.9
20260507082505 24 199 9.7 20.9 0.00 0.00 0.00 40 1008.9
20260507082405 24 199 9.7 20.9 0.00 0.00 0.00 41 1008.9
20260507082306 24 199 9.7 20.9 0.00 0.00 0.00 42 1008.9
20260507082205 24 199 9.7 20.9 0.00 0.00 0.00 42 1009.0
20260507082109 24 198 9.7 20.9 0.00 0.00 0.00 43 1009.0
20260507082014 24 200 9.7 20.9 0.00 0.00 0.00 43 1009.0
20260507081906 23 201 9.7 20.9 0.00 0.00 0.00 43 1009.1
20260507081805 23 199 9.7 20.9 0.00 0.00 0.00 44 1009.1
20260507081706 23 201 9.7 20.9 0.00 0.00 0.00 44 1009.0
20260507081615 23 197 9.7 20.9 0.00 0.00 0.00 44 1009.0
20260507081504 23 198 8.0 20.9 0.00 0.00 0.00 44 1009.1
20260507081405 23 196 8.0 20.9 0.00 0.00 0.00 44 1009.1
20260507081305 23 194 8.0 20.9 0.00 0.00 0.00 44 1009.1
20260507081205 24 193 8.0 20.9 0.00 0.00 0.00 44 1009.1
20260507081105 24 192 8.0 17.7 0.00 0.00 0.00 44 1009.1
20260507081005 23 191 8.0 17.7 0.00 0.00 0.00 44 1009.1
20260507080904 23 192 8.0 17.7 0.00 0.00 0.00 44 1009.2
20260507080804 24 195 8.0 17.7 0.00 0.00 0.00 44 1009.2
20260507080704 24 193 8.0 17.7 0.00 0.00 0.00 44 1009.2
20260507080606 24 201 8.0 17.7 0.00 0.00 0.00 44 1009.2
20260507080511 24 202 8.0 17.7 0.00 0.00 0.00 44 1009.2
20260507080405 24 202 8.0 17.7 0.00 0.00 0.00 43 1009.2
20260507080311 24 204 8.0 17.7 0.00 0.00 0.00 43 1009.2
20260507080006 24 202 8.0 20.9 0.00 0.00 0.00 43 1009.2
20260507075905 24 201 8.0 20.9 0.00 0.00 0.00 43 1009.2
20260507075805 24 200 8.0 20.9 0.00 0.00 0.00 42 1009.4
20260507075704 24 200 8.0 20.9 0.00 0.00 0.00 42 1009.4
20260507075605 24 200 8.0 20.9 0.00 0.00 0.00 42 1009.3
20260507075504 24 203 8.0 20.9 0.00 0.00 0.00 42 1009.3
20260507075405 24 203 8.0 20.9 0.00 0.00 0.00 41 1009.3
20260507075307 24 205 8.0 20.9 0.00 0.00 0.00 42 1009.4
20260507075205 24 203 8.0 20.9 0.00 0.00 0.00 41 1009.4
20260507075105 24 206 8.0 17.7 0.00 0.00 0.00 41 1009.4
20260507075007 24 208 8.0 16.1 0.00 0.00 0.00 41 1009.4
20260507074905 24 209 8.0 16.1 0.00 0.00 0.00 40 1009.4
20260507074806 24 209 8.0 16.1 0.00 0.00 0.00 40 1009.4
20260507074705 24 211 8.0 16.1 0.00 0.00 0.00 40 1009.4
20260507074605 24 208 8.0 17.7 0.00 0.00 0.00 40 1009.5
20260507074505 24 204 8.0 17.7 0.00 0.00 0.00 40 1009.5
20260507074404 24 204 8.0 17.7 0.00 0.00 0.00 41 1009.5
20260507074305 24 203 8.0 17.7 0.00 0.00 0.00 40 1009.5
20260507074204 23 205 8.0 17.7 0.00 0.00 0.00 40 1009.5
20260507074115 23 206 8.0 17.7 0.00 0.00 0.00 40 1009.5
20260507074004 23 205 8.0 17.7 0.00 0.00 0.00 40 1009.6
20260507073905 23 204 6.4 17.7 0.00 0.00 0.00 40 1009.6
20260507073805 23 204 6.4 17.7 0.00 0.00 0.00 40 1009.6
20260507073704 23 202 6.4 17.7 0.00 0.00 0.00 40 1009.6
20260507073604 23 203 6.4 17.7 0.00 0.00 0.00 40 1009.7
20260507073505 23 202 6.4 17.7 0.00 0.00 0.00 40 1009.8
20260507073405 23 201 6.4 16.1 0.00 0.00 0.00 41 1009.8
20260507073306 23 202 6.4 16.1 0.00 0.00 0.00 41 1009.8
20260507073205 23 203 6.4 16.1 0.00 0.00 0.00 41 1009.8
20260507073108 23 201 6.4 16.1 0.00 0.00 0.00 41 1009.8
20260507073005 23 200 6.4 16.1 0.00 0.00 0.00 41 1009.9
20260507072904 23 199 6.4 16.1 0.00 0.00 0.00 41 1009.9
20260507072804 23 200 6.4 17.7 0.00 0.00 0.00 42 1009.9
20260507072704 23 199 6.4 17.7 0.00 0.00 0.00 42 1009.9
20260507072605 23 201 6.4 17.7 0.00 0.00 0.00 42 1010.0
20260507072504 23 202 6.4 17.7 0.00 0.00 0.00 42 1010.0
20260507072404 23 202 6.4 17.7 0.00 0.00 0.00 43 1010.0
20260507072306 23 201 6.4 17.7 0.00 0.00 0.00 43 1009.9
20260507072204 23 198 6.4 17.7 0.00 0.00 0.00 43 1010.1
20260507072104 23 195 6.4 17.7 0.00 0.00 0.00 43 1010.1
20260507072006 23 196 6.4 17.7 0.00 0.00 0.00 43 1010.1
20260507071910 23 197 6.4 17.7 0.00 0.00 0.00 43 1010.1
20260507071810 23 200 6.4 16.1 0.00 0.00 0.00 43 1010.0
20260507071705 23 199 6.4 16.1 0.00 0.00 0.00 43 1010.1
20260507071605 23 197 6.4 16.1 0.00 0.00 0.00 43 1010.1
20260507071504 23 200 6.4 16.1 0.00 0.00 0.00 44 1010.0
20260507071404 23 200 6.4 16.1 0.00 0.00 0.00 43 1010.0
20260507071304 23 198 6.4 19.3 0.00 0.00 0.00 44 1010.0
20260507071204 22 197 6.4 19.3 0.00 0.00 0.00 44 1010.0
20260507071104 22 197 6.4 19.3 0.00 0.00 0.00 44 1010.0
20260507071004 22 198 6.4 19.3 0.00 0.00 0.00 44 1010.0
20260507070904 22 196 6.4 19.3 0.00 0.00 0.00 44 1010.0
20260507070804 22 192 6.4 19.3 0.00 0.00 0.00 44 1010.0
20260507070709 22 192 6.4 19.3 0.00 0.00 0.00 45 1009.9
20260507070604 22 192 4.8 19.3 0.00 0.00 0.00 45 1009.9
20260507070505 22 191 4.8 19.3 0.00 0.00 0.00 45 1010.0
20260507070405 22 188 4.8 19.3 0.00 0.00 0.00 45 1010.1
20260507070310 22 190 4.8 17.7 0.00 0.00 0.00 45 1010.1
20260507070205 22 193 4.8 17.7 0.00 0.00 0.00 45 1010.0
20260507070104 22 194 4.8 17.7 0.00 0.00 0.00 45 1010.0
20260507070009 22 190 4.8 17.7 0.00 0.00 0.00 45 1010.0
20260507065904 22 192 4.8 17.7 0.00 0.00 0.00 47 1010.1
20260507065804 22 195 4.8 17.7 0.00 0.00 0.00 47 1010.1
20260507065704 22 197 4.8 17.7 0.00 0.00 0.00 47 1010.1
20260507065604 21 200 4.8 17.7 0.00 0.00 0.00 47 1010.1
20260507065504 21 202 4.8 17.7 0.00 0.00 0.00 47 1010.2
20260507065404 21 205 4.8 17.7 0.00 0.00 0.00 47 1010.2
20260507065306 21 203 4.8 14.5 0.00 0.00 0.00 48 1010.2
20260507065203 21 200 4.8 14.5 0.00 0.00 0.00 49 1010.3
20260507065106 21 208 4.8 14.5 0.00 0.00 0.00 49 1010.2
20260507065004 21 220 4.8 14.5 0.00 0.00 0.00 49 1010.2
20260507064904 21 220 4.8 14.5 0.00 0.00 0.00 51 1010.3
20260507064804 20 225 4.8 16.1 0.00 0.00 0.00 51 1010.3
20260507064704 20 229 4.8 16.1 0.00 0.00 0.00 52 1010.4
20260507064605 20 228 4.8 16.1 0.00 0.00 0.00 54 1010.6
20260507064504 20 236 4.8 16.1 0.00 0.00 0.00 56 1010.6
20260507064404 20 251 3.2 16.1 0.00 0.00 0.00 60 1010.5
20260507064304 20 251 3.2 16.1 0.00 0.00 0.00 59 1010.5
20260507064204 20 250 3.2 16.1 0.00 0.00 0.00 62 1010.5
20260507064104 20 248 3.2 16.1 0.00 0.00 0.00 59 1010.6
20260507064004 20 242 3.2 16.1 0.00 0.00 0.00 58 1010.6
20260507063904 19 245 3.2 16.1 0.00 0.00 0.00 62 1010.6
20260507063703 19 249 3.2 11.3 0.00 0.00 0.00 62 1010.6
20260507063607 19 262 3.2 11.3 0.00 0.00 0.00 65 1010.6
20260507063504 19 260 3.2 11.3 0.00 0.00 0.00 64 1010.6
20260507063405 19 258 3.2 11.3 0.00 0.00 0.00 58 1010.6
20260507063304 18 275 3.2 11.3 0.00 0.00 0.00 58 1010.6
20260507063206 18 303 3.2 11.3 0.00 0.00 0.00 58 1010.6
20260507063105 18 326 3.2 9.7 0.00 0.00 0.00 60 1010.5
20260507063004 18 333 3.2 9.7 0.00 0.00 0.00 64 1010.5
20260507062904 18 343 3.2 6.4 0.00 0.00 0.00 68 1010.6
20260507062804 18 340 3.2 6.4 0.00 0.00 0.00 69 1010.6
20260507062704 18 339 3.2 6.4 0.00 0.00 0.00 68 1010.6
20260507062604 18 343 3.2 6.4 0.00 0.00 0.00 69 1010.6
20260507062504 18 346 3.2 6.4 0.00 0.00 0.00 69 1010.6
20260507062405 18 351 3.2 6.4 0.00 0.00 0.00 69 1010.6
20260507062306 18 360 1.6 6.4 0.00 0.00 0.00 69 1010.5
20260507062205 18 10 1.6 6.4 0.00 0.00 0.00 68 1010.5
20260507062106 18 23 1.6 6.4 0.00 0.00 0.00 69 1010.6
20260507062006 18 38 1.6 6.4 0.00 0.00 0.00 69 1010.6
20260507061909 18 48 1.6 6.4 0.00 0.00 0.00 66 1010.5
20260507061811 18 54 1.6 6.4 0.00 0.00 0.00 66 1010.7
20260507061706 18 55 1.6 6.4 0.00 0.00 0.00 70 1010.7
20260507061505 18 63 1.6 6.4 0.00 0.00 0.00 71 1010.7
20260507061405 18 65 1.6 6.4 0.00 0.00 0.00 70 1010.7
20260507061305 18 70 1.6 6.4 0.00 0.00 0.00 70 1010.8
20260507061205 18 73 1.6 6.4 0.00 0.00 0.00 71 1010.8
20260507061104 18 77 1.6 6.4 0.00 0.00 0.00 71 1010.8
20260507061005 18 83 1.6 6.4 0.00 0.00 0.00 71 1010.8
20260507060905 18 84 1.6 6.4 0.00 0.00 0.00 71 1010.8
20260507060806 18 85 1.6 6.4 0.00 0.00 0.00 72 1010.7
20260507060705 18 87 1.6 6.4 0.00 0.00 0.00 72 1010.7
20260507060606 18 88 1.6 6.4 0.00 0.00 0.00 72 1010.7
20260507060506 18 91 1.6 4.8 0.00 0.00 0.00 73 1010.6
20260507060406 18 92 1.6 4.8 0.00 0.00 0.00 73 1010.6
20260507060310 18 91 1.6 4.8 0.00 0.00 0.00 73 1010.7
20260507060205 18 90 1.6 4.8 0.00 0.00 0.00 73 1010.7
20260507060105 18 90 0.0 4.8 0.00 0.00 0.00 73 1010.7
20260507060005 18 89 0.0 4.8 0.00 0.00 0.00 73 1010.7
20260507055904 18 89 0.0 4.8 0.00 0.00 0.00 73 1010.7
20260507055805 18 88 0.0 4.8 0.00 0.00 0.00 73 1010.7
20260507055704 18 89 0.0 4.8 0.00 0.00 0.00 73 1010.7
20260507055604 18 95 0.0 4.8 0.00 0.00 0.00 73 1010.7
20260507055505 18 96 0.0 3.2 0.00 0.00 0.00 73 1010.6
20260507055408 18 96 0.0 1.6 0.00 0.00 0.00 73 1010.6
20260507055306 18 96 1.6 3.2 0.00 0.00 0.00 73 1010.7
20260507055204 18 98 1.6 3.2 0.00 0.00 0.00 74 1010.7
20260507055105 18 88 1.6 6.4 0.00 0.00 0.00 73 1010.7
20260507055012 18 88 1.6 6.4 0.00 0.00 0.00 74 1010.7
20260507054906 18 92 1.6 6.4 0.00 0.00 0.00 74 1010.7
20260507054804 18 107 1.6 6.4 0.00 0.00 0.00 74 1010.7
20260507054705 18 112 1.6 6.4 0.00 0.00 0.00 74 1010.7
20260507054605 18 118 1.6 6.4 0.00 0.00 0.00 74 1010.7
20260507054505 18 126 1.6 6.4 0.00 0.00 0.00 74 1010.7
20260507054404 18 140 1.6 6.4 0.00 0.00 0.00 74 1010.6
20260507054305 18 149 1.6 6.4 0.00 0.00 0.00 74 1010.6
20260507054204 18 159 1.6 6.4 0.00 0.00 0.00 74 1010.6
20260507054104 18 177 1.6 4.8 0.00 0.00 0.00 74 1010.6
20260507054004 18 178 1.6 4.8 0.00 0.00 0.00 74 1010.7
20260507053904 18 183 1.6 6.4 0.00 0.00 0.00 73 1010.8
20260507053804 18 196 1.6 6.4 0.00 0.00 0.00 74 1010.8
20260507053704 18 205 1.6 6.4 0.00 0.00 0.00 74 1010.7
20260507053604 18 199 1.6 6.4 0.00 0.00 0.00 74 1010.7
20260507053506 18 192 1.6 6.4 0.00 0.00 0.00 74 1010.7
20260507053405 18 187 1.6 6.4 0.00 0.00 0.00 74 1010.7
20260507053305 18 183 1.6 6.4 0.00 0.00 0.00 74 1010.7
20260507053206 18 181 1.6 8.0 0.00 0.00 0.00 74 1010.7
20260507053105 18 181 1.6 8.0 0.00 0.00 0.00 75 1010.7
20260507053005 18 180 1.6 8.0 0.00 0.00 0.00 75 1010.8
20260507052905 18 180 1.6 8.0 0.00 0.00 0.00 75 1010.8
20260507052805 18 176 1.6 8.0 0.00 0.00 0.00 75 1010.8
20260507052705 18 171 1.6 8.0 0.00 0.00 0.00 75 1010.7
20260507052605 18 169 1.6 8.0 0.00 0.00 0.00 75 1010.7
20260507052505 18 170 1.6 8.0 0.00 0.00 0.00 75 1010.7
20260507052405 17 167 1.6 8.0 0.00 0.00 0.00 75 1010.7
20260507052306 17 167 1.6 8.0 0.00 0.00 0.00 75 1010.7
20260507052205 17 167 1.6 6.4 0.00 0.00 0.00 75 1010.7
20260507052104 17 167 1.6 6.4 0.00 0.00 0.00 75 1010.8
20260507052005 17 173 1.6 6.4 0.00 0.00 0.00 75 1010.8
20260507051905 17 167 1.6 6.4 0.00 0.00 0.00 76 1010.9
20260507051806 17 164 1.6 6.4 0.00 0.00 0.00 76 1010.9
20260507051706 17 165 1.6 6.4 0.00 0.00 0.00 76 1010.9
20260507051607 17 169 1.6 6.4 0.00 0.00 0.00 76 1011.0
20260507051504 17 178 3.2 6.4 0.00 0.00 0.00 76 1011.0
20260507051404 17 189 3.2 6.4 0.00 0.00 0.00 76 1010.9
20260507051304 17 190 3.2 6.4 0.00 0.00 0.00 76 1010.9
20260507051204 17 185 3.2 11.3 0.00 0.00 0.00 76 1010.9
20260507051007 17 175 3.2 11.3 0.00 0.00 0.00 76 1010.9
20260507050904 17 172 3.2 11.3 0.00 0.00 0.00 76 1010.9
20260507050804 17 168 3.2 11.3 0.00 0.00 0.00 76 1011.0
20260507050704 17 169 3.2 11.3 0.00 0.00 0.00 76 1011.0
20260507050604 17 170 3.2 11.3 0.00 0.00 0.00 77 1011.0
20260507050505 17 169 3.2 11.3 0.00 0.00 0.00 77 1011.0
20260507050406 17 167 3.2 11.3 0.00 0.00 0.00 77 1011.0
20260507050306 17 169 3.2 11.3 0.00 0.00 0.00 77 1010.9
20260507050205 17 172 3.2 9.7 0.00 0.00 0.00 77 1010.9
20260507050105 17 174 3.2 9.7 0.00 0.00 0.00 77 1010.9
20260507050005 17 171 3.2 9.7 0.00 0.00 0.00 77 1010.9
20260507045904 17 175 3.2 9.7 0.00 0.00 0.00 78 1010.9
20260507045804 17 178 3.2 8.0 0.00 0.00 0.00 78 1010.9
20260507045704 17 178 3.2 12.9 0.00 0.00 0.00 78 1010.9
20260507045604 17 177 3.2 12.9 0.00 0.00 0.00 79 1010.9
20260507045505 17 179 3.2 12.9 0.00 0.00 0.00 79 1010.8
20260507045404 17 184 3.2 12.9 0.00 0.00 0.00 79 1010.8
20260507045306 17 183 3.2 12.9 0.00 0.00 0.00 79 1010.9
20260507045204 17 184 3.2 12.9 0.00 0.00 0.00 79 1010.9
20260507045104 17 190 3.2 12.9 0.00 0.00 0.00 79 1010.9
20260507045006 17 189 3.2 12.9 0.00 0.00 0.00 79 1011.0
20260507044904 17 186 3.2 12.9 0.00 0.00 0.00 79 1011.0
20260507044806 17 185 3.2 12.9 0.00 0.00 0.00 80 1011.0
20260507044705 17 203 3.2 9.7 0.00 0.00 0.00 80 1011.0
20260507044605 17 217 3.2 8.0 0.00 0.00 0.00 80 1011.1
20260507044505 17 171 3.2 8.0 0.00 0.00 0.00 80 1011.1
20260507044405 17 154 3.2 8.0 0.00 0.00 0.00 80 1011.1
20260507044304 17 153 3.2 8.0 0.00 0.00 0.00 80 1011.1
20260507044204 17 112 3.2 8.0 0.00 0.00 0.00 80 1011.2
20260507044104 17 85 3.2 8.0 0.00 0.00 0.00 80 1011.2
20260507044004 17 29 3.2 8.0 0.00 0.00 0.00 80 1011.2
20260507043904 17 336 3.2 8.0 0.00 0.00 0.00 80 1011.2
20260507043804 17 336 3.2 8.0 0.00 0.00 0.00 80 1011.1
20260507043704 17 18 3.2 8.0 0.00 0.00 0.00 80 1011.1
20260507043604 17 349 3.2 8.0 0.00 0.00 0.00 80 1011.1
20260507043505 17 327 3.2 8.0 0.00 0.00 0.00 80 1011.1
20260507043404 17 329 3.2 8.0 0.00 0.00 0.00 80 1011.1
20260507043305 17 325 3.2 8.0 0.00 0.00 0.00 80 1011.0
20260507043205 17 297 3.2 8.0 0.00 0.00 0.00 79 1011.1
20260507043105 17 265 3.2 6.4 0.00 0.00 0.00 79 1011.1
20260507043004 17 207 3.2 6.4 0.00 0.00 0.00 79 1011.1
20260507042905 17 191 3.2 6.4 0.00 0.00 0.00 79 1011.1
20260507042804 17 189 3.2 8.0 0.00 0.00 0.00 79 1011.1
20260507042704 17 188 1.6 8.0 0.00 0.00 0.00 79 1011.2
20260507042604 17 180 1.6 8.0 0.00 0.00 0.00 79 1011.2
20260507042504 17 173 1.6 8.0 0.00 0.00 0.00 79 1011.2
20260507042404 17 173 1.6 8.0 0.00 0.00 0.00 78 1011.2
20260507042306 17 171 1.6 8.0 0.00 0.00 0.00 77 1011.2
20260507042204 17 166 1.6 8.0 0.00 0.00 0.00 77 1011.1
20260507042104 17 168 1.6 8.0 0.00 0.00 0.00 77 1011.1
20260507042005 17 160 1.6 8.0 0.00 0.00 0.00 76 1011.1
20260507041905 17 151 1.6 8.0 0.00 0.00 0.00 76 1011.1
20260507041807 17 151 1.6 6.4 0.00 0.00 0.00 76 1011.1
20260507041705 17 146 1.6 6.4 0.00 0.00 0.00 76 1011.1
20260507041605 17 141 1.6 6.4 0.00 0.00 0.00 76 1011.1
20260507041504 17 139 1.6 6.4 0.00 0.00 0.00 76 1011.1
20260507041404 17 138 1.6 4.8 0.00 0.00 0.00 76 1011.2
20260507041304 17 146 1.6 4.8 0.00 0.00 0.00 76 1011.2
20260507041204 17 182 1.6 6.4 0.00 0.00 0.00 75 1011.2
20260507041104 17 179 1.6 6.4 0.00 0.00 0.00 75 1011.2
20260507041004 17 184 1.6 6.4 0.00 0.00 0.00 75 1011.2
20260507040904 17 194 1.6 9.7 0.00 0.00 0.00 75 1011.3
20260507040804 17 166 1.6 9.7 0.00 0.00 0.00 75 1011.3
20260507040704 17 153 1.6 9.7 0.00 0.00 0.00 75 1011.2
20260507040604 17 151 1.6 9.7 0.00 0.00 0.00 75 1011.2
20260507040504 17 148 1.6 9.7 0.00 0.00 0.00 75 1011.2
20260507040403 17 138 1.6 9.7 0.00 0.00 0.00 75 1011.2
20260507040206 17 118 1.6 9.7 0.00 0.00 0.00 76 1011.2
20260507040105 17 108 1.6 9.7 0.00 0.00 0.00 76 1011.2
20260507040004 17 100 1.6 9.7 0.00 0.00 0.00 76 1011.2
20260507035820 17 94 1.6 8.0 0.00 0.00 0.00 76 1011.2
20260507035704 17 75 1.6 6.4 0.00 0.00 0.00 77 1011.1
20260507035604 17 68 1.6 6.4 0.00 0.00 0.00 77 1011.1
20260507035504 17 66 1.6 6.4 0.00 0.00 0.00 77 1011.1
20260507035404 17 67 1.6 6.4 0.00 0.00 0.00 76 1011.0
20260507035306 17 67 0.0 6.4 0.00 0.00 0.00 76 1011.0
20260507035204 17 71 0.0 6.4 0.00 0.00 0.00 76 1011.0
20260507035104 17 75 0.0 6.4 0.00 0.00 0.00 76 1010.9
20260507035005 17 78 0.0 6.4 0.00 0.00 0.00 75 1010.9
20260507034908 17 79 0.0 6.4 0.00 0.00 0.00 73 1010.9
20260507034804 17 81 0.0 6.4 0.00 0.00 0.00 72 1010.9
20260507034706 17 104 0.0 6.4 0.00 0.00 0.00 71 1010.9
20260507034604 17 202 0.0 3.2 0.00 0.00 0.00 71 1010.9
20260507034504 17 202 0.0 3.2 0.00 0.00 0.00 72 1010.9
20260507034404 17 202 0.0 3.2 0.00 0.00 0.00 71 1010.9
20260507034304 17 202 0.0 3.2 0.00 0.00 0.00 71 1010.9
20260507034204 17 202 0.0 3.2 0.00 0.00 0.00 72 1010.9
20260507034104 17 202 0.0 1.6 0.00 0.00 0.00 73 1010.8
20260507034004 17 202 0.0 1.6 0.00 0.00 0.00 72 1010.8
20260507033903 17 202 0.0 1.6 0.00 0.00 0.00 71 1010.8
20260507033804 17 202 0.0 1.6 0.00 0.00 0.00 71 1010.8
20260507033704 17 202 0.0 1.6 0.00 0.00 0.00 71 1010.8
20260507033604 17 202 0.0 1.6 0.00 0.00 0.00 71 1010.8
20260507033504 17 203 0.0 1.6 0.00 0.00 0.00 70 1010.8
20260507033405 17 200 0.0 4.8 0.00 0.00 0.00 70 1010.8
20260507033304 17 198 0.0 4.8 0.00 0.00 0.00 70 1010.9
20260507033205 17 196 0.0 4.8 0.00 0.00 0.00 71 1010.9
20260507033104 17 195 0.0 4.8 0.00 0.00 0.00 71 1010.9
20260507033004 17 195 0.0 4.8 0.00 0.00 0.00 72 1010.8
20260507032904 17 195 0.0 4.8 0.00 0.00 0.00 72 1010.8
20260507032804 17 195 0.0 4.8 0.00 0.00 0.00 73 1010.9
20260507032703 18 194 0.0 4.8 0.00 0.00 0.00 73 1010.9
20260507032604 18 194 0.0 4.8 0.00 0.00 0.00 73 1010.9
20260507032505 18 193 0.0 4.8 0.00 0.00 0.00 73 1010.8
20260507032404 18 189 0.0 3.2 0.00 0.00 0.00 73 1010.8
20260507032306 18 185 0.0 3.2 0.00 0.00 0.00 73 1010.9
20260507032204 18 183 0.0 3.2 0.00 0.00 0.00 69 1010.9
20260507032104 17 193 0.0 3.2 0.00 0.00 0.00 67 1010.7
20260507032003 17 193 0.0 3.2 0.00 0.00 0.00 67 1010.7
20260507031905 17 193 0.0 3.2 0.00 0.00 0.00 67 1010.7
20260507031805 17 193 0.0 3.2 0.00 0.00 0.00 67 1010.7
20260507031704 17 197 0.0 3.2 0.00 0.00 0.00 67 1010.8
20260507031605 17 198 0.0 3.2 0.00 0.00 0.00 67 1010.8
20260507031504 17 202 0.0 3.2 0.00 0.00 0.00 67 1010.8
20260507031404 17 203 0.0 3.2 0.00 0.00 0.00 67 1010.8
20260507031304 17 206 0.0 3.2 0.00 0.00 0.00 67 1010.8
20260507031205 17 214 0.0 4.8 0.00 0.00 0.00 67 1010.8
20260507031104 17 213 0.0 4.8 0.00 0.00 0.00 68 1010.8
20260507031005 17 212 0.0 4.8 0.00 0.00 0.00 68 1010.8
20260507030905 17 210 0.0 4.8 0.00 0.00 0.00 68 1010.8
20260507030805 17 208 0.0 4.8 0.00 0.00 0.00 68 1010.8
20260507030704 17 203 1.6 4.8 0.00 0.00 0.00 68 1010.8
20260507030604 17 200 1.6 4.8 0.00 0.00 0.00 69 1010.8
20260507030505 17 194 1.6 4.8 0.00 0.00 0.00 69 1010.9
20260507030405 17 190 1.6 4.8 0.00 0.00 0.00 69 1010.9
20260507030306 17 187 1.6 4.8 0.00 0.00 0.00 70 1010.9
20260507030204 17 180 1.6 4.8 0.00 0.00 0.00 70 1010.8
20260507030105 17 179 1.6 4.8 0.00 0.00 0.00 70 1010.8
20260507030005 17 181 1.6 4.8 0.00 0.00 0.00 71 1010.8
20260507025905 17 184 1.6 4.8 0.00 0.00 0.00 71 1010.8
20260507025804 17 185 1.6 4.8 0.00 0.00 0.00 71 1010.8
20260507025704 17 189 1.6 4.8 0.00 0.00 0.00 71 1010.7
20260507025604 17 194 1.6 4.8 0.00 0.00 0.00 71 1010.7
20260507025505 17 196 1.6 4.8 0.00 0.00 0.00 72 1010.7
20260507025404 17 201 1.6 4.8 0.00 0.00 0.00 72 1010.8
20260507025306 17 203 1.6 4.8 0.00 0.00 0.00 72 1010.8
20260507025205 17 205 1.6 4.8 0.00 0.00 0.00 72 1010.8
20260507025105 17 211 1.6 6.4 0.00 0.00 0.00 73 1010.8
20260507025007 17 210 1.6 6.4 0.00 0.00 0.00 73 1010.9
20260507024905 17 209 1.6 6.4 0.00 0.00 0.00 73 1010.8
20260507024804 17 211 3.2 6.4 0.00 0.00 0.00 73 1010.8
20260507024705 17 213 3.2 6.4 0.00 0.00 0.00 74 1010.8
20260507024606 17 213 3.2 6.4 0.00 0.00 0.00 74 1010.7
20260507024505 17 211 3.2 6.4 0.00 0.00 0.00 74 1010.7
20260507024405 17 209 3.2 6.4 0.00 0.00 0.00 74 1010.6
20260507024305 17 209 3.2 6.4 0.00 0.00 0.00 75 1010.6
20260507024205 17 208 3.2 6.4 0.00 0.00 0.00 75 1010.5
20260507024105 17 206 3.2 6.4 0.00 0.00 0.00 75 1010.5
20260507024005 17 205 3.2 6.4 0.00 0.00 0.00 75 1010.5
20260507023906 17 205 3.2 6.4 0.00 0.00 0.00 75 1010.5
20260507023807 17 207 3.2 6.4 0.00 0.00 0.00 75 1010.5
20260507023705 17 207 3.2 6.4 0.00 0.00 0.00 75 1010.5
20260507023606 17 208 3.2 6.4 0.00 0.00 0.00 75 1010.8
20260507023506 17 210 3.2 6.4 0.00 0.00 0.00 76 1010.8
20260507023414 17 209 3.2 8.0 0.00 0.00 0.00 76 1010.7
20260507023306 17 207 3.2 8.0 0.00 0.00 0.00 76 1010.7
20260507023215 17 207 3.2 8.0 0.00 0.00 0.00 76 1010.7
20260507023114 17 205 3.2 8.0 0.00 0.00 0.00 77 1010.7
20260507023005 17 201 3.2 8.0 0.00 0.00 0.00 77 1010.7
20260507022905 17 201 3.2 8.0 0.00 0.00 0.00 77 1010.7
20260507022804 17 200 3.2 8.0 0.00 0.00 0.00 77 1010.7
20260507022705 17 197 3.2 8.0 0.00 0.00 0.00 77 1010.7
20260507022605 17 197 3.2 8.0 0.00 0.00 0.00 77 1010.6
20260507022505 17 196 3.2 8.0 0.00 0.00 0.00 77 1010.6
20260507022405 17 197 3.2 6.4 0.00 0.00 0.00 77 1010.6
20260507022306 17 195 3.2 6.4 0.00 0.00 0.00 77 1010.7
20260507022204 17 196 3.2 6.4 0.00 0.00 0.00 77 1010.7
20260507022104 17 198 3.2 6.4 0.00 0.00 0.00 77 1010.8
20260507022007 17 205 3.2 6.4 0.00 0.00 0.00 78 1010.8
20260507021905 17 207 3.2 9.7 0.00 0.00 0.00 78 1010.9
20260507021805 17 207 3.2 9.7 0.00 0.00 0.00 78 1011.0
20260507021705 17 208 3.2 9.7 0.00 0.00 0.00 78 1011.0
20260507021606 17 208 3.2 9.7 0.00 0.00 0.00 79 1010.9
20260507021504 17 208 3.2 9.7 0.00 0.00 0.00 79 1010.9
20260507021404 17 207 3.2 9.7 0.00 0.00 0.00 79 1011.0
20260507021304 17 209 3.2 9.7 0.00 0.00 0.00 80 1011.0
20260507021204 17 210 3.2 9.7 0.00 0.00 0.00 80 1011.0
20260507021104 17 211 3.2 9.7 0.00 0.00 0.00 80 1011.0
20260507021005 17 209 3.2 9.7 0.00 0.00 0.00 80 1010.9
20260507020904 17 207 3.2 9.7 0.00 0.00 0.00 80 1010.9
20260507020804 17 208 3.2 9.7 0.00 0.00 0.00 80 1010.9
20260507020704 17 209 3.2 9.7 0.00 0.00 0.00 80 1010.9
20260507020604 17 210 3.2 11.3 0.00 0.00 0.00 81 1011.0
20260507020507 17 211 3.2 11.3 0.00 0.00 0.00 81 1011.1
20260507020407 17 213 3.2 11.3 0.00 0.00 0.00 81 1011.1
20260507020304 17 213 3.2 11.3 0.00 0.00 0.00 81 1011.0
20260507020205 17 214 3.2 11.3 0.00 0.00 0.00 82 1011.0
20260507020105 17 213 3.2 11.3 0.00 0.00 0.00 82 1011.1
20260507020004 17 213 3.2 11.3 0.00 0.00 0.00 82 1011.0
20260507015904 17 210 3.2 11.3 0.00 0.00 0.00 82 1011.0
20260507015804 17 210 3.2 11.3 0.00 0.00 0.00 82 1011.0
20260507015704 17 210 3.2 11.3 0.00 0.00 0.00 82 1011.0
20260507015604 17 209 3.2 11.3 0.00 0.00 0.00 83 1011.0
20260507015504 17 209 3.2 9.7 0.00 0.00 0.00 83 1010.9
20260507015404 17 208 3.2 9.7 0.00 0.00 0.00 83 1010.9
20260507015306 17 208 3.2 9.7 0.00 0.00 0.00 83 1010.9
20260507015204 17 206 4.8 9.7 0.00 0.00 0.00 83 1010.8
20260507015104 17 207 4.8 9.7 0.00 0.00 0.00 83 1010.8
20260507015005 17 205 3.2 9.7 0.00 0.00 0.00 83 1010.8
20260507014904 17 208 3.2 9.7 0.00 0.00 0.00 83 1010.8
20260507014804 17 206 3.2 9.7 0.00 0.00 0.00 83 1010.9
20260507014705 17 206 3.2 9.7 0.00 0.00 0.00 83 1010.9
20260507014605 17 205 3.2 9.7 0.00 0.00 0.00 83 1010.9
20260507014505 17 200 3.2 8.0 0.00 0.00 0.00 83 1010.9
20260507014404 17 199 3.2 8.0 0.00 0.00 0.00 83 1010.9
20260507014304 17 197 3.2 8.0 0.00 0.00 0.00 83 1010.8
20260507014204 17 198 3.2 8.0 0.00 0.00 0.00 83 1010.8
20260507014104 17 196 4.8 8.0 0.00 0.00 0.00 83 1010.8
20260507014004 17 197 4.8 8.0 0.00 0.00 0.00 83 1010.8
20260507013904 17 195 4.8 11.3 0.00 0.00 0.00 83 1010.8
20260507013804 17 198 4.8 11.3 0.00 0.00 0.00 82 1010.8
20260507013704 17 198 4.8 11.3 0.00 0.00 0.00 82 1010.9
20260507013604 17 197 4.8 11.3 0.00 0.00 0.00 82 1010.9
20260507013506 17 202 4.8 11.3 0.00 0.00 0.00 82 1010.9
20260507013405 17 203 4.8 11.3 0.00 0.00 0.00 82 1011.0
20260507013305 17 203 4.8 11.3 0.00 0.00 0.00 82 1011.0
20260507013106 17 204 4.8 11.3 0.00 0.00 0.00 82 1011.0
20260507013004 17 205 4.8 11.3 0.00 0.00 0.00 82 1011.1
20260507012904 17 207 4.8 11.3 0.00 0.00 0.00 82 1011.2
20260507012804 17 205 4.8 11.3 0.00 0.00 0.00 82 1011.2
20260507012704 17 206 4.8 11.3 0.00 0.00 0.00 82 1011.3
20260507012604 17 207 4.8 11.3 0.00 0.00 0.00 82 1011.3
20260507012504 17 206 4.8 11.3 0.00 0.00 0.00 82 1011.2
20260507012404 17 206 4.8 11.3 0.00 0.00 0.00 82 1011.3
20260507012306 17 209 4.8 11.3 0.00 0.00 0.00 82 1011.3
20260507012204 17 208 4.8 11.3 0.00 0.00 0.00 82 1011.3
20260507012104 17 208 4.8 11.3 0.00 0.00 0.00 82 1011.2
20260507012004 17 208 4.8 12.9 0.00 0.00 0.00 82 1011.2
20260507011908 17 207 4.8 12.9 0.00 0.00 0.00 82 1011.2
20260507011805 17 208 4.8 12.9 0.00 0.00 0.00 82 1011.2
20260507011703 17 208 4.8 12.9 0.00 0.00 0.00 82 1011.2
20260507011605 17 209 4.8 12.9 0.00 0.00 0.00 82 1011.2
20260507011504 17 208 6.4 12.9 0.00 0.00 0.00 82 1011.2
20260507011404 17 208 6.4 12.9 0.00 0.00 0.00 82 1011.1
20260507011304 17 206 6.4 12.9 0.00 0.00 0.00 82 1011.1
20260507011204 17 206 6.4 12.9 0.00 0.00 0.00 82 1011.1
20260507011104 17 206 6.4 12.9 0.00 0.00 0.00 82 1011.2
20260507011004 17 205 6.4 12.9 0.00 0.00 0.00 82 1011.2
20260507010903 17 205 6.4 12.9 0.00 0.00 0.00 82 1011.2
20260507010804 17 204 6.4 12.9 0.00 0.00 0.00 82 1011.2
20260507010703 17 200 6.4 12.9 0.00 0.00 0.00 82 1011.3
20260507010604 17 200 6.4 12.9 0.00 0.00 0.00 82 1011.2
20260507010503 17 200 6.4 12.9 0.00 0.00 0.00 82 1011.2
20260507010408 17 197 6.4 12.9 0.00 0.00 0.00 82 1011.3
20260507010304 17 197 6.4 16.1 0.00 0.00 0.00 82 1011.2
20260507010203 17 197 6.4 16.1 0.00 0.00 0.00 82 1011.2
20260507010106 17 196 6.4 16.1 0.00 0.00 0.00 82 1011.3
20260507010012 17 195 6.4 16.1 0.00 0.00 0.00 82 1011.3
20260507005905 17 193 6.4 16.1 0.00 0.00 0.00 82 1011.3
20260507005805 17 193 6.4 16.1 0.00 0.00 0.00 82 1011.4
20260507005704 17 196 6.4 16.1 0.00 0.00 0.00 82 1011.4
20260507005605 17 195 6.4 16.1 0.00 0.00 0.00 82 1011.3
20260507005505 17 197 6.4 16.1 0.00 0.00 0.00 82 1011.3
20260507005405 17 198 6.4 16.1 0.00 0.00 0.00 82 1011.3
20260507005306 17 199 4.8 11.3 0.00 0.00 0.00 82 1011.3
20260507005205 17 198 4.8 11.3 0.00 0.00 0.00 81 1011.3
20260507005104 17 196 4.8 11.3 0.00 0.00 0.00 81 1011.3
20260507005006 17 197 4.8 11.3 0.00 0.00 0.00 81 1011.3
20260507004905 17 199 4.8 11.3 0.00 0.00 0.00 81 1011.2
20260507004810 17 198 4.8 11.3 0.00 0.00 0.00 81 1011.3
20260507004705 17 197 4.8 11.3 0.00 0.00 0.00 81 1011.3
20260507004606 17 196 4.8 11.3 0.00 0.00 0.00 81 1011.2
20260507004505 17 193 4.8 11.3 0.00 0.00 0.00 81 1011.3
20260507004404 17 194 4.8 11.3 0.00 0.00 0.00 81 1011.3
20260507004305 17 194 4.8 11.3 0.00 0.00 0.00 81 1011.3
20260507004205 17 195 4.8 11.3 0.00 0.00 0.00 81 1011.3
20260507004105 17 195 4.8 9.7 0.00 0.00 0.00 81 1011.4
20260507004005 17 196 3.2 9.7 0.00 0.00 0.00 81 1011.4
20260507003905 17 196 3.2 9.7 0.00 0.00 0.00 81 1011.4
20260507003804 17 197 3.2 9.7 0.00 0.00 0.00 81 1011.6
20260507003705 17 198 3.2 9.7 0.00 0.00 0.00 81 1011.6
20260507003605 17 199 3.2 9.7 0.00 0.00 0.00 81 1011.6
20260507003504 17 202 3.2 8.0 0.00 0.00 0.00 81 1011.6
20260507003405 17 202 3.2 8.0 0.00 0.00 0.00 81 1011.6
20260507003307 17 203 3.2 8.0 0.00 0.00 0.00 81 1011.7
20260507003204 17 202 3.2 8.0 0.00 0.00 0.00 81 1011.7
20260507003105 17 202 3.2 8.0 0.00 0.00 0.00 81 1011.6
20260507003004 17 198 3.2 8.0 0.00 0.00 0.00 81 1011.6
20260507002905 17 198 3.2 8.0 0.00 0.00 0.00 81 1011.6
20260507002824 17 198 3.2 8.0 0.00 0.00 0.00 81 1011.7
20260507002722 17 197 3.2 8.0 0.00 0.00 0.00 81 1011.7
20260507002620 17 195 3.2 8.0 0.00 0.00 0.00 81 1011.8
20260507002524 17 195 3.2 8.0 0.00 0.00 0.00 81 1011.7
20260507002420 17 193 3.2 8.0 0.00 0.00 0.00 81 1011.7
20260507002312 17 193 3.2 8.0 0.00 0.00 0.00 82 1011.7
20260507002223 17 191 3.2 8.0 0.00 0.00 0.00 82 1011.7
20260507002123 17 197 3.2 8.0 0.00 0.00 0.00 82 1011.8
20260507002023 17 201 3.2 8.0 0.00 0.00 0.00 82 1011.9
20260507001919 17 201 3.2 8.0 0.00 0.00 0.00 82 1011.9
20260507001823 17 202 3.2 8.0 0.00 0.00 0.00 82 1011.9
20260507001706 17 203 3.2 8.0 0.00 0.00 0.00 82 1011.9
20260507001606 17 204 3.2 8.0 0.00 0.00 0.00 82 1011.9
20260507001504 17 203 3.2 8.0 0.00 0.00 0.00 82 1011.9
20260507001404 17 204 3.2 8.0 0.00 0.00 0.00 82 1011.9
20260507001304 17 205 3.2 8.0 0.00 0.00 0.00 82 1011.9
20260507001204 17 207 3.2 8.0 0.00 0.00 0.00 82 1011.8
20260507001104 17 206 4.8 9.7 0.00 0.00 0.00 82 1011.8
20260507001004 17 206 4.8 9.7 0.00 0.00 0.00 82 1011.9
20260507000904 17 208 4.8 9.7 0.00 0.00 0.00 82 1011.8
20260507000804 17 205 4.8 11.3 0.00 0.00 0.00 82 1011.8
20260507000704 17 206 4.8 11.3 0.00 0.00 0.00 82 1011.9
20260507000604 17 205 4.8 11.3 0.00 0.00 0.00 83 1011.9
20260507000504 17 202 4.8 11.3 0.00 0.00 0.00 83 1011.8
20260507000406 17 202 4.8 11.3 0.00 0.00 0.00 83 1011.9
20260507000306 17 199 4.8 11.3 0.00 0.00 0.00 83 1011.9
20260507000205 17 196 4.8 11.3 0.00 0.00 0.00 83 1011.9
20260507000106 17 198 4.8 11.3 0.00 0.00 0.00 83 1011.9
20260507000005 17 198 4.8 11.3 0.00 0.00 0.00 83 1011.8
20260506235904 17 198 4.8 11.3 0.00 0.00 0.00 83 1011.7
20260506235804 17 199 4.8 11.3 0.00 0.00 0.00 83 1011.7
20260506235704 17 198 4.8 11.3 0.00 0.00 0.00 83 1011.8
20260506235604 17 197 4.8 11.3 0.00 0.00 0.00 83 1011.8
20260506235505 17 201 4.8 11.3 0.00 0.00 0.00 83 1011.8
20260506235404 17 202 6.4 11.3 0.00 0.00 0.00 83 1011.7
20260506235306 17 205 6.4 11.3 0.00 0.00 0.00 83 1011.7
20260506235203 17 207 6.4 11.3 0.00 0.00 0.00 83 1011.7
20260506235103 17 205 6.4 11.3 0.00 0.00 0.00 83 1011.8
20260506235006 17 205 6.4 11.3 0.00 0.00 0.00 83 1011.8
20260506234909 17 205 6.4 11.3 0.00 0.00 0.00 83 1011.8
20260506234805 17 207 6.4 12.9 0.00 0.00 0.00 83 1011.8
20260506234704 17 209 8.0 12.9 0.00 0.00 0.00 83 1011.8
20260506234605 17 209 8.0 12.9 0.00 0.00 0.00 83 1011.9
20260506234504 17 206 8.0 12.9 0.00 0.00 0.00 83 1011.9
20260506234404 17 206 8.0 14.5 0.00 0.00 0.00 83 1011.9
20260506234304 17 206 8.0 14.5 0.00 0.00 0.00 83 1012.0
20260506234203 17 208 8.0 14.5 0.00 0.00 0.00 83 1012.0
20260506234104 17 208 8.0 14.5 0.00 0.00 0.00 83 1011.9
20260506234004 17 207 8.0 14.5 0.00 0.00 0.00 83 1011.9
20260506233904 17 208 8.0 19.3 0.00 0.00 0.00 83 1011.8
20260506233803 17 207 8.0 19.3 0.00 0.00 0.00 83 1011.8
20260506233703 17 207 8.0 19.3 0.00 0.00 0.00 83 1011.8
20260506233603 17 208 8.0 19.3 0.00 0.00 0.00 83 1011.6
20260506233505 17 209 8.0 19.3 0.00 0.00 0.00 83 1011.6
20260506233404 17 209 8.0 19.3 0.00 0.00 0.00 83 1011.7
20260506233304 17 207 8.0 19.3 0.00 0.00 0.00 82 1011.6
20260506233205 17 206 8.0 19.3 0.00 0.00 0.00 82 1011.6
20260506233004 17 207 8.0 19.3 0.00 0.00 0.00 82 1011.6
20260506232904 17 206 8.0 19.3 0.00 0.00 0.00 82 1011.5
20260506232804 17 206 8.0 17.7 0.00 0.00 0.00 82 1011.5
20260506232705 17 208 8.0 17.7 0.00 0.00 0.00 82 1011.5
20260506232605 17 207 8.0 17.7 0.00 0.00 0.00 82 1011.5
20260506232504 17 209 8.0 22.5 0.00 0.00 0.00 82 1011.5
20260506232404 17 210 8.0 22.5 0.00 0.00 0.00 82 1011.5
20260506232306 17 213 8.0 22.5 0.00 0.00 0.00 83 1011.5
20260506232204 17 211 8.0 22.5 0.00 0.00 0.00 83 1011.5
20260506232104 17 209 8.0 22.5 0.00 0.00 0.00 83 1011.6
20260506232005 17 215 8.0 22.5 0.00 0.00 0.00 83 1011.5
20260506231904 17 217 8.0 22.5 0.00 0.00 0.00 83 1011.5
20260506231804 17 251 8.0 22.5 0.00 0.00 0.00 83 1011.4
20260506231704 17 17 8.0 22.5 0.00 0.00 0.00 83 1011.4
20260506231605 17 22 8.0 22.5 0.00 0.00 0.00 83 1011.4
20260506230905 17 203 8.0 19.3 0.00 0.00 0.00 83 1011.4
20260506230805 17 199 8.0 19.3 0.00 0.00 0.00 83 1011.4
20260506230704 17 200 8.0 16.1 0.00 0.00 0.00 82 1011.3
20260506230604 17 201 8.0 16.1 0.00 0.00 0.00 82 1011.3
20260506230506 17 200 8.0 16.1 0.00 0.00 0.00 82 1011.3
20260506230405 17 200 8.0 16.1 0.00 0.00 0.00 82 1011.3
20260506230305 17 203 8.0 16.1 0.00 0.00 0.00 82 1011.3
20260506230206 17 203 8.0 16.1 0.00 0.00 0.00 82 1011.4
20260506230109 17 202 8.0 16.1 0.00 0.00 0.00 82 1011.4
20260506230005 17 201 8.0 16.1 0.00 0.00 0.00 82 1011.4
20260506225904 17 204 8.0 17.7 0.00 0.00 0.00 82 1011.4
20260506225804 17 207 8.0 17.7 0.00 0.00 0.00 82 1011.2
20260506225704 17 207 8.0 17.7 0.00 0.00 0.00 82 1011.2
20260506225604 18 206 8.0 17.7 0.00 0.00 0.00 81 1011.3
20260506225505 17 205 8.0 17.7 0.00 0.00 0.00 81 1011.3
20260506225404 18 203 8.0 17.7 0.00 0.00 0.00 81 1011.3
20260506225306 18 201 9.7 17.7 0.00 0.00 0.00 81 1011.2
20260506225205 18 201 9.7 17.7 0.00 0.00 0.00 81 1011.2
20260506225104 18 203 9.7 17.7 0.00 0.00 0.00 81 1011.3
20260506225008 18 203 9.7 17.7 0.00 0.00 0.00 81 1011.3
20260506224904 18 201 9.7 17.7 0.00 0.00 0.00 80 1011.2
20260506224806 18 201 9.7 17.7 0.00 0.00 0.00 80 1011.2
20260506224705 18 203 9.7 17.7 0.00 0.00 0.00 80 1011.2
20260506224606 18 202 8.0 20.9 0.00 0.00 0.00 79 1011.3
20260506224505 18 204 8.0 20.9 0.00 0.00 0.00 79 1011.3
20260506224404 18 207 8.0 20.9 0.00 0.00 0.00 79 1011.2
20260506224304 18 207 8.0 20.9 0.00 0.00 0.00 78 1011.1
20260506224204 18 209 8.0 20.9 0.00 0.00 0.00 78 1011.1
20260506224104 18 208 6.4 20.9 0.00 0.00 0.00 77 1011.0
20260506224004 18 206 6.4 20.9 0.00 0.00 0.00 77 1011.1
20260506223904 18 209 6.4 20.9 0.00 0.00 0.00 76 1011.1
20260506223804 18 210 6.4 20.9 0.00 0.00 0.00 76 1011.2
20260506223704 18 207 6.4 20.9 0.00 0.00 0.00 75 1011.2
20260506223604 18 205 6.4 17.7 0.00 0.00 0.00 74 1011.1
20260506223506 18 204 6.4 17.7 0.00 0.00 0.00 73 1011.1
20260506223405 18 205 6.4 17.7 0.00 0.00 0.00 73 1011.1
20260506223305 18 204 6.4 17.7 0.00 0.00 0.00 72 1011.0
20260506223206 18 203 4.8 16.1 0.00 0.00 0.00 72 1011.0
20260506223105 18 203 4.8 16.1 0.00 0.00 0.00 72 1011.0
20260506223005 18 204 4.8 16.1 0.00 0.00 0.00 71 1011.0
20260506222905 18 204 4.8 16.1 0.00 0.00 0.00 71 1011.0
20260506222804 18 202 4.8 16.1 0.00 0.00 0.00 71 1011.0
20260506222704 18 206 6.4 14.5 0.00 0.00 0.00 71 1011.0
20260506222605 18 208 6.4 14.5 0.00 0.00 0.00 71 1011.0
20260506222505 18 208 6.4 14.5 0.00 0.00 0.00 71 1011.0
20260506222405 18 206 6.4 14.5 0.00 0.00 0.00 71 1011.0
20260506222306 18 205 6.4 14.5 0.00 0.00 0.00 71 1011.0
20260506222204 18 203 6.4 12.9 0.00 0.00 0.00 71 1011.0
20260506222105 18 205 6.4 16.1 0.00 0.00 0.00 71 1011.0
20260506222005 18 205 6.4 16.1 0.00 0.00 0.00 71 1011.0
20260506221907 18 202 6.4 16.1 0.00 0.00 0.00 71 1011.0
20260506221806 18 202 6.4 16.1 0.00 0.00 0.00 71 1011.0
20260506221705 18 202 6.4 16.1 0.00 0.00 0.00 71 1011.0
20260506221606 18 200 6.4 16.1 0.00 0.00 0.00 71 1011.0
20260506221504 18 199 6.4 16.1 0.00 0.00 0.00 71 1011.0
20260506221404 18 198 6.4 19.3 0.00 0.00 0.00 71 1011.0
20260506221304 18 200 6.4 19.3 0.00 0.00 0.00 72 1011.0
20260506221209 18 203 6.4 19.3 0.00 0.00 0.00 71 1011.1
20260506221104 18 201 6.4 19.3 0.00 0.00 0.00 71 1011.1
20260506221004 18 202 6.4 19.3 0.00 0.00 0.00 71 1011.0
20260506220904 18 203 4.8 19.3 0.00 0.00 0.00 71 1010.9
20260506220804 18 204 4.8 19.3 0.00 0.00 0.00 71 1010.9
20260506220704 18 202 4.8 19.3 0.00 0.00 0.00 71 1010.8
20260506220604 18 203 4.8 19.3 0.00 0.00 0.00 71 1010.8
20260506220506 18 204 4.8 19.3 0.00 0.00 0.00 71 1010.9
20260506220405 18 206 4.8 12.9 0.00 0.00 0.00 71 1010.9
20260506220304 18 206 4.8 12.9 0.00 0.00 0.00 71 1010.9
20260506220205 18 203 4.8 12.9 0.00 0.00 0.00 71 1010.8
20260506220104 18 203 4.8 12.9 0.00 0.00 0.00 72 1010.8
20260506220036 18 204 4.8 11.3 0.00 0.00 0.00 72 1011.0
20260506215904 18 202 4.8 11.3 0.00 0.00 0.00 73 1011.0
20260506215804 18 198 4.8 11.3 0.00 0.00 0.00 73 1011.0
20260506215704 17 199 4.8 11.3 0.00 0.00 0.00 73 1010.9
20260506215604 18 201 4.8 11.3 0.00 0.00 0.00 74 1011.0
20260506215504 17 200 4.8 11.3 0.00 0.00 0.00 75 1011.0
20260506215404 17 199 3.2 11.3 0.00 0.00 0.00 75 1011.0
20260506215306 17 199 3.2 11.3 0.00 0.00 0.00 75 1011.0
20260506215204 17 201 3.2 11.3 0.00 0.00 0.00 76 1011.0
20260506215105 17 199 3.2 11.3 0.00 0.00 0.00 75 1011.0
20260506215006 17 195 3.2 9.7 0.00 0.00 0.00 76 1011.0
20260506214905 17 198 3.2 9.7 0.00 0.00 0.00 76 1011.1
20260506214805 17 197 3.2 9.7 0.00 0.00 0.00 75 1011.1
20260506214705 17 198 3.2 9.7 0.00 0.00 0.00 76 1011.2
20260506214605 17 193 3.2 11.3 0.00 0.00 0.00 76 1011.0
20260506214504 17 196 3.2 11.3 0.00 0.00 0.00 76 1011.0
20260506214404 17 197 3.2 11.3 0.00 0.00 0.00 77 1011.0
20260506214304 17 196 3.2 11.3 0.00 0.00 0.00 77 1011.0
20260506214209 17 199 3.2 11.3 0.00 0.00 0.00 77 1011.0
20260506214104 17 200 3.2 11.3 0.00 0.00 0.00 77 1011.0
20260506214004 17 200 3.2 11.3 0.00 0.00 0.00 77 1011.0
20260506213903 17 198 3.2 11.3 0.00 0.00 0.00 77 1011.0
20260506213804 17 198 3.2 11.3 0.00 0.00 0.00 78 1010.9
20260506213704 17 198 3.2 11.3 0.00 0.00 0.00 78 1010.9
20260506213604 17 201 3.2 9.7 0.00 0.00 0.00 78 1010.9
20260506213506 17 198 3.2 9.7 0.00 0.00 0.00 78 1010.9
20260506213405 17 197 3.2 9.7 0.00 0.00 0.00 78 1010.9
20260506213305 17 192 3.2 9.7 0.00 0.00 0.00 78 1010.9
20260506213205 17 190 3.2 9.7 0.00 0.00 0.00 78 1010.9
20260506213104 17 192 3.2 9.7 0.00 0.00 0.00 78 1010.7
20260506213004 17 193 3.2 8.0 0.00 0.00 0.00 78 1010.7
20260506212904 17 193 3.2 8.0 0.00 0.00 0.00 78 1010.8
20260506212804 17 195 3.2 8.0 0.00 0.00 0.00 78 1010.7
20260506212704 17 195 3.2 8.0 0.00 0.00 0.00 79 1010.7
20260506212605 17 194 3.2 8.0 0.00 0.00 0.00 79 1010.6
20260506212505 17 193 3.2 6.4 0.00 0.00 0.00 79 1010.6
20260506212409 17 195 3.2 6.4 0.00 0.00 0.00 79 1010.7
20260506212306 17 198 3.2 6.4 0.00 0.00 0.00 80 1010.6
20260506212204 17 198 3.2 6.4 0.00 0.00 0.00 80 1010.6
20260506212104 17 198 3.2 6.4 0.00 0.00 0.00 80 1010.6
20260506212004 17 196 3.2 8.0 0.00 0.00 0.00 80 1010.5
20260506211905 17 197 3.2 8.0 0.00 0.00 0.00 80 1010.5
20260506211806 17 198 3.2 8.0 0.00 0.00 0.00 81 1010.5
20260506211706 17 199 3.2 8.0 0.00 0.00 0.00 81 1010.5
20260506211605 17 200 3.2 8.0 0.00 0.00 0.00 81 1010.5
20260506211505 17 202 3.2 8.0 0.00 0.00 0.00 81 1010.5
20260506211405 17 203 3.2 8.0 0.00 0.00 0.00 81 1010.5
20260506211304 17 200 3.2 11.3 0.00 0.00 0.00 81 1010.6
20260506211204 17 202 3.2 11.3 0.00 0.00 0.00 82 1010.6
20260506211105 17 202 3.2 11.3 0.00 0.00 0.00 82 1010.7
20260506211005 17 205 4.8 11.3 0.00 0.00 0.00 82 1010.7
20260506210905 17 206 4.8 11.3 0.00 0.00 0.00 82 1010.7
20260506210806 17 206 4.8 11.3 0.00 0.00 0.00 83 1010.7
20260506210705 17 202 4.8 11.3 0.00 0.00 0.00 83 1010.7
20260506210608 17 202 4.8 11.3 0.00 0.00 0.00 83 1010.7
20260506210507 17 205 4.8 11.3 0.00 0.00 0.00 83 1010.7
20260506210405 17 205 4.8 11.3 0.00 0.00 0.00 83 1010.7
20260506210306 17 209 4.8 11.3 0.00 0.00 0.00 84 1010.8
20260506210206 17 210 4.8 12.9 0.00 0.00 0.00 83 1010.7
20260506210109 17 210 4.8 12.9 0.00 0.00 0.00 84 1010.7
20260506210005 17 208 4.8 12.9 0.00 0.00 0.00 84 1010.9
20260506205905 17 206 4.8 12.9 0.00 0.00 0.00 84 1010.9
20260506205804 17 206 4.8 12.9 0.00 0.00 0.00 84 1010.9
20260506205704 17 208 4.8 12.9 0.00 0.00 0.00 84 1011.0
20260506205604 17 210 4.8 12.9 0.00 0.00 0.00 84 1011.0
20260506205505 17 209 4.8 12.9 0.00 0.00 0.00 84 1011.0
20260506205404 17 207 4.8 12.9 0.00 0.00 0.00 84 1011.0
20260506205306 17 208 4.8 12.9 0.00 0.00 0.00 85 1010.9
20260506205205 17 206 4.8 11.3 0.00 0.00 0.00 85 1011.0
20260506205107 17 206 4.8 11.3 0.00 0.00 0.00 85 1011.0
20260506205007 17 207 4.8 11.3 0.00 0.00 0.00 85 1011.0
20260506204907 17 210 4.8 11.3 0.00 0.00 0.00 85 1011.1
20260506204807 17 210 4.8 11.3 0.00 0.00 0.00 85 1011.1
20260506204705 17 210 4.8 11.3 0.00 0.00 0.00 85 1011.1
20260506204605 17 208 4.8 11.3 0.00 0.00 0.00 85 1011.1
20260506204505 17 206 4.8 11.3 0.00 0.00 0.00 85 1011.2
20260506204405 17 207 4.8 11.3 0.00 0.00 0.00 85 1011.2
20260506204305 17 206 4.8 11.3 0.00 0.00 0.00 85 1011.2
20260506204205 17 205 4.8 12.9 0.00 0.00 0.00 85 1011.2
20260506204104 17 206 4.8 12.9 0.00 0.00 0.00 85 1011.2
20260506204005 17 208 4.8 12.9 0.00 0.00 0.00 85 1011.2
20260506203904 17 206 4.8 12.9 0.00 0.00 0.00 86 1011.2
20260506203805 17 205 4.8 12.9 0.00 0.00 0.00 86 1011.2
20260506203705 17 206 4.8 12.9 0.00 0.00 0.00 86 1011.4
20260506203604 17 208 4.8 12.9 0.00 0.00 0.00 86 1011.4
20260506203510 17 208 4.8 12.9 0.00 0.00 0.00 86 1011.4
20260506203406 17 209 4.8 12.9 0.00 0.00 0.00 86 1011.5
20260506203304 17 210 4.8 12.9 0.00 0.00 0.00 86 1011.5
20260506203205 17 208 4.8 12.9 0.00 0.00 0.00 86 1011.6
20260506203104 17 206 6.4 12.9 0.00 0.00 0.00 86 1011.8
20260506203005 17 205 6.4 11.3 0.00 0.00 0.00 86 1011.8
20260506202904 17 205 6.4 11.3 0.00 0.00 0.00 86 1011.8
20260506202804 17 206 6.4 11.3 0.00 0.00 0.00 86 1011.8
20260506202704 17 203 6.4 11.3 0.00 0.00 0.00 86 1011.9
20260506202605 17 204 6.4 12.9 0.00 0.00 0.00 86 1011.9
20260506202504 17 203 6.4 14.5 0.00 0.00 0.00 86 1011.9
20260506202404 17 203 6.4 14.5 0.00 0.00 0.00 86 1012.0
20260506202306 17 203 6.4 14.5 0.00 0.00 0.00 86 1012.0
20260506202204 17 208 6.4 14.5 0.00 0.00 0.00 86 1012.0
20260506202104 17 207 6.4 14.5 0.00 0.00 0.00 86 1012.0
20260506202006 17 207 6.4 14.5 0.00 0.00 0.00 86 1012.0
20260506201907 17 206 6.4 14.5 0.00 0.00 0.00 86 1012.1
20260506201805 17 205 6.4 14.5 0.00 0.00 0.00 85 1012.1
20260506201704 17 208 6.4 14.5 0.00 0.00 0.00 86 1012.1
20260506201607 17 208 6.4 14.5 0.00 0.00 0.00 86 1012.1
20260506201504 17 207 6.4 14.5 0.00 0.00 0.00 85 1012.1
20260506201404 17 209 6.4 14.5 0.00 0.00 0.00 86 1012.1
20260506201305 17 208 6.4 14.5 0.00 0.00 0.00 85 1012.2
20260506201204 17 204 6.4 14.5 0.00 0.00 0.00 85 1012.2
20260506201105 17 209 6.4 14.5 0.00 0.00 0.00 85 1012.2
20260506201004 17 207 6.4 14.5 0.00 0.00 0.00 85 1012.2
20260506200905 17 208 6.4 17.7 0.00 0.00 0.00 86 1012.3
20260506200804 17 206 6.4 17.7 0.00 0.00 0.00 86 1012.3
20260506200704 17 205 6.4 17.7 0.00 0.00 0.00 86 1012.3
20260506200604 17 204 6.4 17.7 0.00 0.00 0.00 85 1012.4
20260506200506 17 208 6.4 17.7 0.00 0.00 0.00 85 1012.4
20260506200407 17 203 6.4 17.7 0.00 0.00 0.00 85 1012.4
20260506200305 17 203 6.4 17.7 0.00 0.00 0.00 85 1012.4
20260506200212 17 204 6.4 17.7 0.00 0.00 0.00 85 1012.4
20260506200106 17 202 6.4 17.7 0.00 0.00 0.00 85 1012.4
20260506200005 17 202 6.4 17.7 0.00 0.00 0.00 86 1012.4
20260506195905 17 201 6.4 17.7 0.00 0.00 0.00 86 1012.4
20260506195804 17 203 6.4 17.7 0.00 0.00 0.00 86 1012.4
20260506195704 17 205 6.4 17.7 0.00 0.00 0.00 86 1012.4
20260506195604 17 205 6.4 17.7 0.00 0.00 0.00 86 1012.4
20260506195505 17 205 6.4 14.5 0.00 0.00 0.00 86 1012.5
20260506195404 17 208 6.4 14.5 0.00 0.00 0.00 86 1012.5
20260506195306 17 207 6.4 16.1 0.00 0.00 0.00 86 1012.4
20260506195204 17 206 6.4 16.1 0.00 0.00 0.00 86 1012.4
20260506195104 17 206 6.4 16.1 0.00 0.00 0.00 86 1012.4
20260506195005 17 206 6.4 16.1 0.00 0.00 0.00 86 1012.3
20260506194904 17 206 6.4 16.1 0.00 0.00 0.00 86 1012.3
20260506194804 17 206 6.4 16.1 0.00 0.00 0.00 86 1012.3
20260506194705 17 205 6.4 16.1 0.00 0.00 0.00 86 1012.3
20260506194606 17 205 6.4 16.1 0.00 0.00 0.00 86 1012.3
20260506194504 17 204 6.4 16.1 0.00 0.00 0.00 86 1012.3
20260506194404 17 205 6.4 16.1 0.00 0.00 0.00 86 1012.3
20260506194304 17 204 6.4 14.5 0.00 0.00 0.00 86 1012.3
20260506194204 17 204 6.4 14.5 0.00 0.00 0.00 86 1012.3
20260506194104 17 202 6.4 14.5 0.00 0.00 0.00 86 1012.3
20260506194005 17 205 6.4 14.5 0.00 0.00 0.00 86 1012.3
20260506193904 17 206 6.4 12.9 0.00 0.00 0.00 86 1012.3
20260506193804 17 205 6.4 12.9 0.00 0.00 0.00 86 1012.4
20260506193705 17 205 6.4 12.9 0.00 0.00 0.00 86 1012.4
20260506193604 17 206 6.4 12.9 0.00 0.00 0.00 86 1012.4
20260506193510 17 206 6.4 12.9 0.00 0.00 0.00 86 1012.4
20260506193404 17 206 6.4 12.9 0.00 0.00 0.00 86 1012.4
20260506193305 17 209 6.4 12.9 0.00 0.00 0.00 85 1012.4
20260506193207 17 208 6.4 12.9 0.00 0.00 0.00 86 1012.4
20260506193106 17 208 6.4 12.9 0.00 0.00 0.00 86 1012.4
20260506193004 17 210 6.4 12.9 0.00 0.00 0.00 86 1012.3
20260506192904 17 209 6.4 12.9 0.00 0.00 0.00 86 1012.3
20260506192804 17 210 4.8 12.9 0.00 0.00 0.00 86 1012.3
20260506192704 17 211 4.8 12.9 0.00 0.00 0.00 85 1012.2
20260506192604 17 209 4.8 12.9 0.00 0.00 0.00 85 1012.2
20260506192505 17 210 4.8 12.9 0.00 0.00 0.00 85 1012.3
20260506192404 17 211 4.8 12.9 0.00 0.00 0.00 85 1012.3
20260506192305 17 209 6.4 12.9 0.00 0.00 0.00 85 1012.3
20260506192205 17 210 6.4 12.9 0.00 0.00 0.00 85 1012.4
20260506192104 17 209 6.4 12.9 0.00 0.00 0.00 85 1012.4
20260506192006 17 207 6.4 12.9 0.00 0.00 0.00 85 1012.4
20260506191904 17 205 6.4 12.9 0.00 0.00 0.00 85 1012.4
20260506191805 17 202 6.4 12.9 0.00 0.00 0.00 85 1012.4
20260506191707 17 199 6.4 12.9 0.00 0.00 0.00 85 1012.4
20260506191606 17 200 6.4 12.9 0.00 0.00 0.00 85 1012.4
20260506191505 17 196 6.4 16.1 0.00 0.00 0.00 85 1012.5
20260506191404 17 195 6.4 16.1 0.00 0.00 0.00 85 1012.3
20260506191304 17 195 6.4 16.1 0.00 0.00 0.00 85 1012.3
20260506191205 17 194 8.0 16.1 0.00 0.00 0.00 85 1012.4
20260506191104 17 194 8.0 16.1 0.00 0.00 0.00 85 1012.4
20260506190904 17 195 8.0 25.7 0.00 0.00 0.00 85 1012.4
20260506190804 17 195 8.0 25.7 0.00 0.00 0.00 85 1012.4
20260506190704 17 196 8.0 25.7 0.00 0.00 0.00 85 1012.4
20260506190604 17 198 8.0 25.7 0.00 0.00 0.00 85 1012.4
20260506190504 17 199 6.4 25.7 0.00 0.00 0.00 85 1012.4
20260506190404 17 201 6.4 25.7 0.00 0.00 0.00 84 1012.5
20260506190304 17 202 6.4 25.7 0.00 0.00 0.00 84 1012.5
20260506190204 17 203 6.4 25.7 0.00 0.00 0.00 84 1012.4
20260506190105 17 205 6.4 25.7 0.00 0.00 0.00 84 1012.4
20260506190005 17 205 6.4 25.7 0.00 0.00 0.00 84 1012.4
20260506185904 17 204 6.4 16.1 0.00 0.00 0.00 84 1012.4
20260506185804 17 205 6.4 16.1 0.00 0.00 0.00 84 1012.4
20260506185704 17 204 6.4 16.1 0.00 0.00 0.00 84 1012.4
20260506185604 17 201 6.4 16.1 0.00 0.00 0.00 84 1012.4
20260506185504 17 202 6.4 16.1 0.00 0.00 0.00 84 1012.4
20260506185404 17 201 6.4 17.7 0.00 0.00 0.00 84 1012.3
20260506185306 17 199 6.4 17.7 0.00 0.00 0.00 84 1012.3
20260506185204 17 197 6.4 17.7 0.00 0.00 0.00 84 1012.3
20260506185104 17 196 6.4 17.7 0.00 0.00 0.00 84 1012.2
20260506185005 17 197 6.4 17.7 0.00 0.00 0.00 84 1012.2
20260506184904 17 196 6.4 17.7 0.00 0.00 0.00 84 1012.2
20260506184806 17 197 6.4 17.7 0.00 0.00 0.00 84 1012.2
20260506184708 17 196 6.4 17.7 0.00 0.00 0.00 84 1012.2
20260506184606 17 195 6.4 17.7 0.00 0.00 0.00 84 1012.1
20260506184505 18 195 6.4 17.7 0.00 0.00 0.00 84 1012.1
20260506184405 18 194 6.4 14.5 0.00 0.00 0.00 83 1012.1
20260506184305 18 194 8.0 14.5 0.00 0.00 0.00 83 1012.0
20260506184205 18 193 8.0 16.1 0.00 0.00 0.00 83 1012.0
20260506184104 18 194 8.0 16.1 0.00 0.00 0.00 83 1012.0
20260506184005 18 193 8.0 16.1 0.00 0.00 0.00 83 1012.0
20260506183905 18 194 8.0 17.7 0.00 0.00 0.00 83 1012.0
20260506183804 18 191 8.0 22.5 0.00 0.00 0.00 83 1012.0
20260506183705 18 191 8.0 22.5 0.00 0.00 0.00 83 1012.0
20260506183604 18 192 8.0 22.5 0.00 0.00 0.00 83 1012.0
20260506183507 18 194 8.0 22.5 0.00 0.00 0.00 83 1011.9
20260506183404 18 193 6.4 22.5 0.00 0.00 0.00 83 1011.9
20260506183306 18 194 6.4 22.5 0.00 0.00 0.00 83 1011.9
20260506183206 18 193 6.4 22.5 0.00 0.00 0.00 83 1011.9
20260506183109 18 195 6.4 22.5 0.00 0.00 0.00 83 1011.9
20260506183006 18 195 6.4 22.5 0.00 0.00 0.00 82 1012.0
20260506182904 18 197 6.4 22.5 0.00 0.00 0.00 83 1012.0
20260506182805 18 200 6.4 14.5 0.00 0.00 0.00 83 1011.9
20260506182705 18 201 6.4 14.5 0.00 0.00 0.00 82 1011.9
20260506182609 18 203 6.4 14.5 0.00 0.00 0.00 82 1011.9
20260506182509 18 201 6.4 12.9 0.00 0.00 0.00 82 1011.9
20260506182405 18 203 6.4 12.9 0.00 0.00 0.00 82 1011.9
20260506182306 18 205 6.4 12.9 0.00 0.00 0.00 82 1011.9
20260506182205 18 207 6.4 12.9 0.00 0.00 0.00 82 1011.9
20260506182105 18 208 6.4 14.5 0.00 0.00 0.00 82 1011.9
20260506182004 18 208 6.4 14.5 0.00 0.00 0.00 82 1011.7
20260506181904 18 209 6.4 14.5 0.00 0.00 0.00 82 1011.7
20260506181805 18 209 6.4 14.5 0.00 0.00 0.00 82 1011.7
20260506181705 18 210 6.4 14.5 0.00 0.00 0.00 82 1011.7
20260506181605 18 210 6.4 14.5 0.00 0.00 0.00 82 1011.7
20260506181506 18 212 6.4 14.5 0.00 0.00 0.00 82 1011.7
20260506181404 18 211 6.4 14.5 0.00 0.00 0.00 82 1011.7
20260506181304 18 211 6.4 14.5 0.00 0.00 0.00 82 1011.7
20260506181205 18 213 6.4 14.5 0.00 0.00 0.00 82 1011.7
20260506181104 18 212 6.4 14.5 0.00 0.00 0.00 82 1011.7
20260506181005 18 213 6.4 14.5 0.00 0.00 0.00 82 1011.7
20260506180904 18 209 6.4 14.5 0.00 0.00 0.00 82 1011.7
20260506180804 18 208 6.4 14.5 0.00 0.00 0.00 82 1011.7
20260506180704 18 209 6.4 14.5 0.00 0.00 0.00 82 1011.6
20260506180605 18 209 6.4 14.5 0.00 0.00 0.00 82 1011.6
20260506180506 18 208 6.4 14.5 0.00 0.00 0.00 82 1011.6
20260506180405 18 209 6.4 14.5 0.00 0.00 0.00 81 1011.5
20260506180306 18 209 6.4 14.5 0.00 0.00 0.00 81 1011.5
20260506180207 18 205 6.4 14.5 0.00 0.00 0.00 81 1011.6
20260506180105 18 204 6.4 14.5 0.00 0.00 0.00 81 1011.6
20260506180006 18 206 6.4 14.5 0.00 0.00 0.00 81 1011.5
20260506175905 18 208 6.4 14.5 0.00 0.00 0.00 81 1011.6
20260506175805 18 209 6.4 14.5 0.00 0.00 0.00 81 1011.6
20260506175704 18 208 6.4 14.5 0.00 0.00 0.00 81 1011.6
20260506175605 18 210 6.4 14.5 0.00 0.00 0.00 81 1011.6
20260506175505 18 207 6.4 14.5 0.00 0.00 0.00 81 1011.5
20260506175405 18 208 6.4 14.5 0.00 0.00 0.00 81 1011.5
20260506175306 18 207 6.4 14.5 0.00 0.00 0.00 81 1011.5
20260506175204 18 204 4.8 14.5 0.00 0.00 0.00 81 1011.5
20260506175105 18 204 4.8 14.5 0.00 0.00 0.00 81 1011.5
20260506175004 18 203 4.8 12.9 0.00 0.00 0.00 81 1011.4
20260506174905 18 203 4.8 12.9 0.00 0.00 0.00 81 1011.4
20260506174808 18 204 4.8 12.9 0.00 0.00 0.00 81 1011.4
20260506174705 18 202 4.8 12.9 0.00 0.00 0.00 81 1011.3
20260506174605 18 200 4.8 12.9 0.00 0.00 0.00 81 1011.3
20260506174505 18 202 4.8 12.9 0.00 0.00 0.00 81 1011.3
20260506174404 18 201 4.8 12.9 0.00 0.00 0.00 81 1011.3
20260506174304 18 200 4.8 12.9 0.00 0.00 0.00 80 1011.3
20260506174204 18 206 4.8 12.9 0.00 0.00 0.00 80 1011.3
20260506174104 18 208 4.8 12.9 0.00 0.00 0.00 80 1011.4
20260506174004 18 206 4.8 12.9 0.00 0.00 0.00 80 1011.4
20260506173904 18 203 4.8 12.9 0.00 0.00 0.00 80 1011.4
20260506173804 18 200 4.8 12.9 0.00 0.00 0.00 80 1011.4
20260506173704 18 199 4.8 14.5 0.00 0.00 0.00 80 1011.4
20260506173604 18 199 4.8 19.3 0.00 0.00 0.00 80 1011.4
20260506173506 18 200 6.4 19.3 0.00 0.00 0.00 80 1011.4
20260506173405 18 201 6.4 19.3 0.00 0.00 0.00 80 1011.4
20260506173313 18 199 6.4 19.3 0.00 0.00 0.00 80 1011.4
20260506173206 18 197 6.4 19.3 0.00 0.00 0.00 80 1011.5
20260506173105 18 197 6.4 19.3 0.00 0.00 0.00 80 1011.4
20260506173005 18 196 6.4 19.3 0.00 0.00 0.00 80 1011.4
20260506172904 18 196 6.4 19.3 0.00 0.00 0.00 80 1011.4
20260506172805 18 197 6.4 19.3 0.00 0.00 0.00 80 1011.5
20260506172704 18 199 6.4 19.3 0.00 0.00 0.00 80 1011.5
20260506172605 18 199 6.4 12.9 0.00 0.00 0.00 80 1011.5
20260506172505 18 199 6.4 17.7 0.00 0.00 0.00 80 1011.5
20260506172404 18 197 6.4 17.7 0.00 0.00 0.00 80 1011.5
20260506172306 18 198 6.4 17.7 0.00 0.00 0.00 80 1011.5
20260506172204 18 196 6.4 17.7 0.00 0.00 0.00 80 1011.5
20260506172104 18 193 6.4 17.7 0.00 0.00 0.00 80 1011.5
20260506172006 18 193 6.4 17.7 0.00 0.00 0.00 80 1011.5
20260506171905 18 195 6.4 17.7 0.00 0.00 0.00 80 1011.6
20260506171805 18 196 4.8 17.7 0.00 0.00 0.00 80 1011.5
20260506171705 18 196 4.8 17.7 0.00 0.00 0.00 80 1011.5
20260506171606 18 197 4.8 17.7 0.00 0.00 0.00 80 1011.6
20260506171504 18 196 4.8 14.5 0.00 0.00 0.00 80 1011.6
20260506171405 18 196 4.8 14.5 0.00 0.00 0.00 80 1011.6
20260506171304 18 198 4.8 14.5 0.00 0.00 0.00 80 1011.6
20260506171204 18 202 4.8 14.5 0.00 0.00 0.00 80 1011.6
20260506171104 18 205 6.4 14.5 0.00 0.00 0.00 80 1011.6
20260506171005 18 206 6.4 11.3 0.00 0.00 0.00 80 1011.6
20260506170905 18 206 6.4 12.9 0.00 0.00 0.00 79 1011.6
20260506170805 18 208 6.4 12.9 0.00 0.00 0.00 79 1011.7
20260506170704 18 208 6.4 16.1 0.00 0.00 0.00 79 1011.7
20260506170604 18 206 6.4 16.1 0.00 0.00 0.00 79 1011.7
20260506170509 18 205 6.4 16.1 0.00 0.00 0.00 79 1011.7
20260506170405 18 208 6.4 16.1 0.00 0.00 0.00 79 1011.7
20260506170304 18 209 6.4 16.1 0.00 0.00 0.00 79 1011.7
20260506170204 18 209 6.4 16.1 0.00 0.00 0.00 79 1011.7
20260506170106 18 212 6.4 16.1 0.00 0.00 0.00 79 1011.7
20260506170005 18 210 6.4 16.1 0.00 0.00 0.00 79 1011.7
20260506165904 19 212 6.4 16.1 0.00 0.00 0.00 79 1011.7
20260506165804 19 211 6.4 16.1 0.00 0.00 0.00 79 1011.7
20260506165704 19 210 6.4 16.1 0.00 0.00 0.00 79 1011.7
20260506165604 19 207 6.4 16.1 0.00 0.00 0.00 79 1011.7
20260506165505 19 210 6.4 16.1 0.00 0.00 0.00 79 1011.7
20260506165404 19 208 6.4 16.1 0.00 0.00 0.00 79 1011.7
20260506165305 19 206 6.4 16.1 0.00 0.00 0.00 79 1011.7
20260506165205 19 203 6.4 16.1 0.00 0.00 0.00 79 1011.7
20260506165104 19 200 6.4 16.1 0.00 0.00 0.00 79 1011.7
20260506165005 19 205 6.4 16.1 0.00 0.00 0.00 79 1011.7
20260506164904 19 201 6.4 17.7 0.00 0.00 0.00 79 1011.7
20260506164805 19 202 6.4 17.7 0.00 0.00 0.00 79 1011.7
20260506164706 19 202 6.4 17.7 0.00 0.00 0.00 79 1011.7
20260506164605 19 204 6.4 17.7 0.00 0.00 0.00 79 1011.7
20260506164504 19 201 6.4 17.7 0.00 0.00 0.00 79 1011.7
20260506164404 19 203 6.4 17.7 0.00 0.00 0.00 79 1011.6
20260506164304 19 203 6.4 17.7 0.00 0.00 0.00 79 1011.6
20260506164204 19 205 6.4 17.7 0.00 0.00 0.00 79 1011.7
20260506164104 19 205 6.4 17.7 0.00 0.00 0.00 79 1011.7
20260506164006 19 205 6.4 17.7 0.00 0.00 0.00 79 1011.8
20260506163904 19 207 6.4 17.7 0.00 0.00 0.00 79 1011.8
20260506163804 19 205 6.4 17.7 0.00 0.00 0.00 79 1011.8
20260506163704 19 206 6.4 17.7 0.00 0.00 0.00 78 1011.8
20260506163604 19 204 6.4 17.7 0.00 0.00 0.00 78 1011.8
20260506163503 19 207 6.4 17.7 0.00 0.00 0.00 78 1011.7
20260506163406 19 206 6.4 17.7 0.00 0.00 0.00 78 1011.7
20260506163306 19 208 8.0 17.7 0.00 0.00 0.00 78 1011.7
20260506163205 19 207 8.0 17.7 0.00 0.00 0.00 78 1011.7
20260506163105 19 207 8.0 17.7 0.00 0.00 0.00 78 1011.7
20260506163004 19 207 8.0 17.7 0.00 0.00 0.00 78 1011.7
20260506162904 19 206 8.0 14.5 0.00 0.00 0.00 78 1011.7
20260506162804 19 207 8.0 14.5 0.00 0.00 0.00 78 1011.7
20260506162704 19 205 8.0 14.5 0.00 0.00 0.00 78 1011.7
20260506162604 19 205 8.0 14.5 0.00 0.00 0.00 78 1011.7
20260506162504 19 204 8.0 14.5 0.00 0.00 0.00 78 1011.7
20260506162404 19 205 8.0 14.5 0.00 0.00 0.00 78 1011.7
20260506162307 19 205 8.0 14.5 0.00 0.00 0.00 78 1011.7
20260506162205 19 205 8.0 14.5 0.00 0.00 0.00 78 1011.7
20260506162105 19 204 8.0 14.5 0.00 0.00 0.00 78 1011.7
20260506162005 20 205 8.0 14.5 0.00 0.00 0.00 78 1011.7
20260506161905 19 207 8.0 14.5 0.00 0.00 0.00 78 1011.7
20260506161806 19 207 8.0 16.1 0.00 0.00 0.00 78 1011.7
20260506161706 20 209 8.0 16.1 0.00 0.00 0.00 78 1011.9
20260506161610 20 210 6.4 16.1 0.00 0.00 0.00 78 1011.8
20260506161505 20 210 6.4 16.1 0.00 0.00 0.00 78 1011.8
20260506161405 20 209 6.4 16.1 0.00 0.00 0.00 78 1011.9
20260506161305 20 209 6.4 16.1 0.00 0.00 0.00 77 1011.9
20260506161205 20 209 6.4 16.1 0.00 0.00 0.00 77 1012.0
20260506161105 20 210 6.4 16.1 0.00 0.00 0.00 77 1012.0
20260506161005 20 210 6.4 16.1 0.00 0.00 0.00 77 1012.0
20260506160904 20 207 6.4 16.1 0.00 0.00 0.00 78 1012.0
20260506160805 20 209 8.0 16.1 0.00 0.00 0.00 78 1012.1
20260506160705 20 207 8.0 16.1 0.00 0.00 0.00 77 1012.1
20260506160604 20 208 8.0 16.1 0.00 0.00 0.00 78 1012.1
20260506160506 20 207 8.0 16.1 0.00 0.00 0.00 78 1012.1
20260506160405 20 208 8.0 16.1 0.00 0.00 0.00 78 1012.0
20260506160306 20 205 8.0 14.5 0.00 0.00 0.00 78 1012.1
20260506160206 20 207 8.0 14.5 0.00 0.00 0.00 77 1012.1
20260506160108 20 206 8.0 14.5 0.00 0.00 0.00 77 1012.1
20260506160005 20 208 8.0 19.3 0.00 0.00 0.00 77 1012.1
20260506155905 20 209 8.0 19.3 0.00 0.00 0.00 77 1012.1
20260506155805 20 207 8.0 20.9 0.00 0.00 0.00 78 1012.0
20260506155704 20 209 8.0 20.9 0.00 0.00 0.00 78 1012.0
20260506155604 19 208 8.0 20.9 0.00 0.00 0.00 78 1012.1
20260506155505 19 209 8.0 20.9 0.00 0.00 0.00 78 1012.1
20260506155405 19 209 8.0 20.9 0.00 0.00 0.00 78 1012.1
20260506155306 19 211 8.0 20.9 0.00 0.00 0.00 78 1012.1
20260506155205 19 208 8.0 20.9 0.00 0.00 0.00 78 1012.1
20260506155106 19 207 8.0 20.9 0.00 0.00 0.00 78 1012.0
20260506155006 19 205 8.0 20.9 0.00 0.00 0.00 78 1012.1
20260506154906 19 204 8.0 20.9 0.00 0.00 0.00 78 1012.1
20260506154807 19 203 8.0 17.7 0.00 0.00 0.00 78 1012.1
20260506154706 19 201 8.0 17.7 0.00 0.00 0.00 78 1012.1
20260506154605 19 204 8.0 17.7 0.00 0.00 0.00 78 1012.2
20260506154505 19 204 8.0 17.7 0.00 0.00 0.00 78 1012.1
20260506154404 19 203 8.0 17.7 0.00 0.00 0.00 78 1012.1
20260506154305 19 204 8.0 17.7 0.00 0.00 0.00 78 1012.1
20260506154205 19 204 8.0 17.7 0.00 0.00 0.00 78 1012.1
20260506154104 19 204 9.7 17.7 0.00 0.00 0.00 78 1012.1
20260506154005 19 206 9.7 25.7 0.00 0.00 0.00 78 1012.1
20260506153905 19 205 9.7 25.7 0.00 0.00 0.00 77 1012.1
20260506153805 19 208 9.7 25.7 0.00 0.00 0.00 78 1012.2
20260506153705 19 209 9.7 25.7 0.00 0.00 0.00 78 1012.2
20260506153607 19 205 9.7 25.7 0.00 0.00 0.00 78 1012.2
20260506153507 19 204 9.7 25.7 0.00 0.00 0.00 78 1012.2
20260506153404 19 206 9.7 25.7 0.00 0.00 0.00 78 1012.2
20260506153306 20 202 9.7 25.7 0.00 0.00 0.00 78 1012.3
20260506153205 20 201 9.7 25.7 0.00 0.00 0.00 77 1012.1
20260506153108 20 202 9.7 25.7 0.00 0.00 0.00 77 1012.1
20260506153004 20 200 9.7 24.1 0.00 0.00 0.00 77 1012.2
20260506152904 20 199 9.7 20.9 0.00 0.00 0.00 77 1012.2
20260506152804 20 199 9.7 20.9 0.00 0.00 0.00 77 1012.2
20260506152704 20 199 9.7 20.9 0.00 0.00 0.00 77 1012.2
20260506152604 20 200 9.7 20.9 0.00 0.00 0.00 77 1012.2
20260506152505 20 200 9.7 20.9 0.00 0.00 0.00 77 1012.2
20260506152404 20 199 9.7 20.9 0.00 0.00 0.00 77 1012.2
20260506152306 20 204 9.7 20.9 0.00 0.00 0.00 77 1012.3
20260506152205 20 206 9.7 20.9 0.00 0.00 0.00 77 1012.2
20260506152105 20 208 9.7 19.3 0.00 0.00 0.00 77 1012.2
20260506152006 20 209 9.7 19.3 0.00 0.00 0.00 77 1012.3
20260506151905 20 211 9.7 19.3 0.00 0.00 0.00 76 1012.2
20260506151806 20 211 9.7 19.3 0.00 0.00 0.00 76 1012.2
20260506151706 20 210 9.7 20.9 0.00 0.00 0.00 76 1012.2
20260506151606 20 212 9.7 20.9 0.00 0.00 0.00 76 1012.2
20260506151505 20 215 11.3 20.9 0.00 0.00 0.00 76 1012.2
20260506151405 20 214 11.3 20.9 0.00 0.00 0.00 76 1012.1
20260506151304 20 212 11.3 20.9 0.00 0.00 0.00 76 1012.1
20260506151205 20 211 11.3 20.9 0.00 0.00 0.00 76 1012.1
20260506151105 20 209 11.3 22.5 0.00 0.00 0.00 76 1012.1
20260506151004 20 210 11.3 22.5 0.00 0.00 0.00 76 1012.1
20260506150904 20 207 11.3 22.5 0.00 0.00 0.00 76 1012.1
20260506150804 20 209 9.7 22.5 0.00 0.00 0.00 76 1012.1
20260506150704 20 209 9.7 22.5 0.00 0.00 0.00 76 1012.0
20260506150604 20 206 9.7 22.5 0.00 0.00 0.00 75 1012.1
20260506150506 20 206 9.7 22.5 0.00 0.00 0.00 75 1012.1
20260506150405 20 206 9.7 22.5 0.00 0.00 0.00 75 1012.1
20260506150306 20 206 9.7 22.5 0.00 0.00 0.00 75 1012.1
20260506150207 20 206 9.7 22.5 0.00 0.00 0.00 75 1012.1
20260506150105 20 208 9.7 22.5 0.00 0.00 0.00 75 1012.1
20260506150004 20 208 9.7 22.5 0.00 0.00 0.00 75 1012.1
20260506145904 20 209 9.7 22.5 0.00 0.00 0.00 75 1012.1
20260506145804 20 206 9.7 22.5 0.00 0.00 0.00 75 1012.1
20260506145704 20 205 9.7 22.5 0.00 0.00 0.00 75 1012.2
20260506145604 20 208 9.7 22.5 0.00 0.00 0.00 75 1012.1
20260506145504 20 204 9.7 22.5 0.00 0.00 0.00 75 1012.1
20260506145404 20 205 9.7 24.1 0.00 0.00 0.00 75 1012.1
20260506145306 20 203 9.7 24.1 0.00 0.00 0.00 75 1012.1
20260506145204 20 206 9.7 24.1 0.00 0.00 0.00 75 1012.1
20260506145106 20 204 9.7 24.1 0.00 0.00 0.00 75 1012.1
20260506145008 20 204 9.7 24.1 0.00 0.00 0.00 75 1012.1
20260506144906 20 205 9.7 24.1 0.00 0.00 0.00 75 1012.2
20260506144806 20 206 9.7 24.1 0.00 0.00 0.00 75 1012.1
20260506144705 20 208 9.7 24.1 0.00 0.00 0.00 75 1012.1
20260506144605 20 205 9.7 24.1 0.00 0.00 0.00 74 1012.1
20260506144505 20 204 9.7 24.1 0.00 0.00 0.00 74 1012.1
20260506144404 20 204 9.7 22.5 0.00 0.00 0.00 74 1012.2
20260506144304 20 208 9.7 24.1 0.00 0.00 0.00 74 1012.2
20260506144204 20 206 9.7 24.1 0.00 0.00 0.00 74 1012.2
20260506144104 20 206 11.3 27.4 0.00 0.00 0.00 74 1012.0
20260506144005 20 203 11.3 27.4 0.00 0.00 0.00 73 1012.0
20260506143904 20 202 11.3 27.4 0.00 0.00 0.00 73 1012.1
20260506143804 21 204 11.3 27.4 0.00 0.00 0.00 73 1011.9
20260506143704 21 205 11.3 27.4 0.00 0.00 0.00 73 1011.9
20260506143606 21 211 11.3 27.4 0.00 0.00 0.00 73 1011.9
20260506143505 21 211 11.3 27.4 0.00 0.00 0.00 73 1011.9
20260506143404 21 213 11.3 27.4 0.00 0.00 0.00 73 1011.8
20260506143305 21 210 11.3 27.4 0.00 0.00 0.00 73 1011.7
20260506143205 21 212 11.3 27.4 0.00 0.00 0.00 73 1011.7
20260506143105 21 211 11.3 25.7 0.00 0.00 0.00 73 1011.7
20260506143004 21 211 11.3 25.7 0.00 0.00 0.00 73 1011.7
20260506142904 21 211 11.3 25.7 0.00 0.00 0.00 72 1011.7
20260506142804 21 211 11.3 25.7 0.00 0.00 0.00 72 1011.7
20260506142704 21 210 11.3 25.7 0.00 0.00 0.00 72 1011.7
20260506142604 21 207 11.3 25.7 0.00 0.00 0.00 72 1011.6
20260506142506 21 209 11.3 25.7 0.00 0.00 0.00 72 1011.6
20260506142404 21 209 11.3 25.7 0.00 0.00 0.00 71 1011.6
20260506142306 21 210 11.3 25.7 0.00 0.00 0.00 71 1011.7
20260506142204 21 208 11.3 25.7 0.00 0.00 0.00 71 1011.7
20260506142104 21 207 11.3 22.5 0.00 0.00 0.00 71 1011.6
20260506142006 21 207 11.3 22.5 0.00 0.00 0.00 71 1011.6
20260506141905 21 208 11.3 22.5 0.00 0.00 0.00 71 1011.6
20260506141804 21 205 11.3 22.5 0.00 0.00 0.00 71 1011.6
20260506141704 21 203 11.3 24.1 0.00 0.00 0.00 71 1011.7
20260506141605 21 202 11.3 24.1 0.00 0.00 0.00 71 1011.7
20260506141504 21 202 11.3 24.1 0.00 0.00 0.00 71 1011.5
20260506141406 21 203 11.3 24.1 0.00 0.00 0.00 71 1011.5
20260506141304 21 202 11.3 24.1 0.00 0.00 0.00 71 1011.6
20260506141205 21 203 11.3 24.1 0.00 0.00 0.00 71 1011.5
20260506141104 21 206 11.3 24.1 0.00 0.00 0.00 71 1011.5
20260506141004 21 210 11.3 24.1 0.00 0.00 0.00 71 1011.7
20260506140904 21 208 11.3 24.1 0.00 0.00 0.00 71 1011.7
20260506140804 21 209 11.3 24.1 0.00 0.00 0.00 71 1011.6
20260506140704 21 208 11.3 24.1 0.00 0.00 0.00 71 1011.7
20260506140604 21 208 11.3 24.1 0.00 0.00 0.00 71 1011.7
20260506140506 21 204 11.3 25.7 0.00 0.00 0.00 71 1011.7
20260506140405 21 200 11.3 25.7 0.00 0.00 0.00 71 1011.7
20260506140303 21 201 9.7 25.7 0.00 0.00 0.00 71 1011.7
20260506140205 21 200 9.7 25.7 0.00 0.00 0.00 71 1011.7
20260506140105 21 199 9.7 25.7 0.00 0.00 0.00 71 1011.7
20260506140005 21 198 9.7 25.7 0.00 0.00 0.00 71 1011.8
20260506135905 21 197 9.7 25.7 0.00 0.00 0.00 71 1011.8
20260506135806 21 196 9.7 25.7 0.00 0.00 0.00 71 1011.8
20260506135705 21 196 9.7 25.7 0.00 0.00 0.00 71 1011.8
20260506135605 21 197 9.7 25.7 0.00 0.00 0.00 71 1011.8
20260506135505 21 202 9.7 20.9 0.00 0.00 0.00 72 1011.8
20260506135404 21 202 9.7 20.9 0.00 0.00 0.00 72 1011.8
20260506135306 21 203 9.7 20.9 0.00 0.00 0.00 72 1011.8
20260506135204 21 203 9.7 20.9 0.00 0.00 0.00 72 1011.7
20260506135107 21 203 9.7 20.9 0.00 0.00 0.00 72 1011.7
20260506135007 21 202 9.7 20.9 0.00 0.00 0.00 72 1011.8
20260506134905 21 205 9.7 20.9 0.00 0.00 0.00 72 1011.9
20260506134808 21 204 9.7 20.9 0.00 0.00 0.00 72 1011.9
20260506134705 21 205 9.7 20.9 0.00 0.00 0.00 72 1011.8
20260506134608 21 204 9.7 19.3 0.00 0.00 0.00 72 1011.8
20260506134505 21 201 9.7 19.3 0.00 0.00 0.00 72 1011.7
20260506134404 21 203 9.7 20.9 0.00 0.00 0.00 72 1011.7
20260506134304 21 201 9.7 20.9 0.00 0.00 0.00 72 1011.7
20260506134205 21 201 9.7 20.9 0.00 0.00 0.00 72 1011.8
20260506134105 21 198 9.7 20.9 0.00 0.00 0.00 72 1011.7
20260506134005 21 200 9.7 20.9 0.00 0.00 0.00 72 1011.7
20260506133905 21 197 11.3 20.9 0.00 0.00 0.00 72 1011.8
20260506133804 21 198 11.3 20.9 0.00 0.00 0.00 72 1011.8
20260506133705 21 198 11.3 20.9 0.00 0.00 0.00 72 1011.8
20260506133605 21 199 11.3 20.9 0.00 0.00 0.00 73 1011.8
20260506133506 21 200 11.3 20.9 0.00 0.00 0.00 73 1011.8
20260506133411 21 197 11.3 27.4 0.00 0.00 0.00 73 1011.9
20260506133305 21 197 12.9 27.4 0.00 0.00 0.00 73 1011.9
20260506133206 21 200 12.9 27.4 0.00 0.00 0.00 73 1012.0
20260506133109 21 201 12.9 27.4 0.00 0.00 0.00 73 1012.1
20260506133005 21 199 12.9 27.4 0.00 0.00 0.00 74 1012.1
20260506132904 21 201 12.9 27.4 0.00 0.00 0.00 74 1012.0
20260506132804 21 200 12.9 27.4 0.00 0.00 0.00 74 1012.1
20260506132704 20 201 12.9 27.4 0.00 0.00 0.00 74 1012.1
20260506132604 20 200 12.9 27.4 0.00 0.00 0.00 74 1012.0
20260506132504 20 201 12.9 27.4 0.00 0.00 0.00 74 1012.0
20260506132404 20 202 12.9 25.7 0.00 0.00 0.00 74 1012.0
20260506132307 20 202 12.9 24.1 0.00 0.00 0.00 74 1012.1
20260506132205 20 201 12.9 24.1 0.00 0.00 0.00 74 1012.1
20260506132105 20 202 12.9 24.1 0.00 0.00 0.00 73 1012.1
20260506132005 20 202 12.9 27.4 0.00 0.00 0.00 73 1012.1
20260506131907 20 201 12.9 27.4 0.00 0.00 0.00 73 1012.1
20260506131805 20 201 12.9 27.4 0.00 0.00 0.00 74 1012.2
20260506131706 20 202 12.9 27.4 0.00 0.00 0.00 74 1012.2
20260506131607 20 201 11.3 27.4 0.00 0.00 0.00 74 1012.1
20260506131505 20 200 11.3 27.4 0.00 0.00 0.00 74 1012.1
20260506131405 20 200 11.3 27.4 0.00 0.00 0.00 73 1012.2
20260506131305 20 199 11.3 27.4 0.00 0.00 0.00 73 1012.1
20260506131204 20 199 11.3 27.4 0.00 0.00 0.00 73 1012.1
20260506131105 21 199 11.3 27.4 0.00 0.00 0.00 73 1012.2
20260506131005 21 200 11.3 25.7 0.00 0.00 0.00 73 1012.2
20260506130904 21 200 11.3 25.7 0.00 0.00 0.00 73 1012.2
20260506130805 21 202 11.3 25.7 0.00 0.00 0.00 73 1012.3
20260506130705 21 202 11.3 25.7 0.00 0.00 0.00 72 1012.3
20260506130608 21 203 11.3 24.1 0.00 0.00 0.00 72 1012.3
20260506130506 21 204 11.3 24.1 0.00 0.00 0.00 72 1012.4
20260506130407 21 206 11.3 20.9 0.00 0.00 0.00 72 1012.4
20260506130304 21 207 11.3 24.1 0.00 0.00 0.00 72 1012.3
20260506130205 21 209 11.3 24.1 0.00 0.00 0.00 72 1012.3
20260506130105 21 211 11.3 24.1 0.00 0.00 0.00 72 1012.4
20260506130006 21 211 11.3 24.1 0.00 0.00 0.00 72 1012.4
20260506125904 21 211 9.7 24.1 0.00 0.00 0.00 72 1012.4
20260506125804 21 209 9.7 24.1 0.00 0.00 0.00 72 1012.4
20260506125705 21 207 9.7 25.7 0.00 0.00 0.00 72 1012.4
20260506125604 21 209 9.7 25.7 0.00 0.00 0.00 73 1012.4
20260506125505 21 209 9.7 25.7 0.00 0.00 0.00 73 1012.4
20260506125404 21 208 9.7 25.7 0.00 0.00 0.00 73 1012.4
20260506125305 21 210 9.7 25.7 0.00 0.00 0.00 73 1012.5
20260506125204 21 206 9.7 25.7 0.00 0.00 0.00 73 1012.5
20260506125106 21 205 9.7 25.7 0.00 0.00 0.00 72 1012.5
20260506125005 21 200 9.7 25.7 0.00 0.00 0.00 72 1012.4
20260506124904 21 200 11.3 25.7 0.00 0.00 0.00 72 1012.4
20260506124807 21 198 11.3 25.7 0.00 0.00 0.00 72 1012.5
20260506124705 21 199 11.3 25.7 0.00 0.00 0.00 72 1012.5
20260506124606 21 197 11.3 25.7 0.00 0.00 0.00 72 1012.5
20260506124504 21 199 11.3 25.7 0.00 0.00 0.00 72 1012.5
20260506124404 21 200 11.3 25.7 0.00 0.00 0.00 72 1012.5
20260506124304 21 197 11.3 25.7 0.00 0.00 0.00 72 1012.5
20260506124204 21 198 11.3 25.7 0.00 0.00 0.00 72 1012.4
20260506124104 21 196 11.3 25.7 0.00 0.00 0.00 72 1012.4
20260506124005 21 195 11.3 24.1 0.00 0.00 0.00 72 1012.4
20260506123904 21 197 11.3 24.1 0.00 0.00 0.00 72 1012.4
20260506123804 21 199 11.3 24.1 0.00 0.00 0.00 71 1012.4
20260506123704 21 200 11.3 22.5 0.00 0.00 0.00 71 1012.4
20260506123604 21 199 11.3 22.5 0.00 0.00 0.00 71 1012.4
20260506123505 21 200 11.3 27.4 0.00 0.00 0.00 71 1012.4
20260506123405 21 198 11.3 27.4 0.00 0.00 0.00 71 1012.4
20260506123306 21 200 11.3 27.4 0.00 0.00 0.00 71 1012.4
20260506123206 21 201 11.3 27.4 0.00 0.00 0.00 71 1012.4
20260506123104 21 201 11.3 27.4 0.00 0.00 0.00 71 1012.4
20260506123005 21 204 11.3 27.4 0.00 0.00 0.00 71 1012.5
20260506122904 21 204 11.3 27.4 0.00 0.00 0.00 71 1012.4
20260506122804 21 204 11.3 27.4 0.00 0.00 0.00 70 1012.4
20260506122705 21 204 11.3 27.4 0.00 0.00 0.00 70 1012.4
20260506122604 21 204 11.3 27.4 0.00 0.00 0.00 71 1012.4
20260506122505 21 202 11.3 25.7 0.00 0.00 0.00 71 1012.4
20260506122404 21 203 11.3 27.4 0.00 0.00 0.00 71 1012.4
20260506122306 21 203 11.3 27.4 0.00 0.00 0.00 70 1012.4
20260506122204 21 201 11.3 27.4 0.00 0.00 0.00 71 1012.4
20260506122105 21 200 11.3 27.4 0.00 0.00 0.00 71 1012.3
20260506122006 21 201 11.3 27.4 0.00 0.00 0.00 71 1012.3
20260506121905 21 200 11.3 27.4 0.00 0.00 0.00 71 1012.5
20260506121804 21 200 12.9 27.4 0.00 0.00 0.00 71 1012.5
20260506121704 21 200 12.9 27.4 0.00 0.00 0.00 71 1012.4
20260506121605 21 199 12.9 27.4 0.00 0.00 0.00 71 1012.5
20260506121504 21 199 11.3 27.4 0.00 0.00 0.00 71 1012.5
20260506121404 21 200 11.3 25.7 0.00 0.00 0.00 71 1012.5
20260506121304 21 200 11.3 25.7 0.00 0.00 0.00 71 1012.5
20260506121204 21 201 11.3 24.1 0.00 0.00 0.00 71 1012.4
20260506121104 21 202 11.3 24.1 0.00 0.00 0.00 71 1012.5
20260506121005 21 200 11.3 24.1 0.00 0.00 0.00 71 1012.5
20260506120904 21 197 11.3 25.7 0.00 0.00 0.00 71 1012.5
20260506120804 21 197 11.3 25.7 0.00 0.00 0.00 71 1012.5
20260506120704 21 196 11.3 25.7 0.00 0.00 0.00 71 1012.6
20260506120608 21 200 11.3 25.7 0.00 0.00 0.00 71 1012.6
20260506120504 21 198 9.7 25.7 0.00 0.00 0.00 70 1012.6
20260506120405 21 194 9.7 25.7 0.00 0.00 0.00 70 1012.7
20260506120306 21 192 9.7 25.7 0.00 0.00 0.00 70 1012.6
20260506120206 21 191 9.7 25.7 0.00 0.00 0.00 70 1012.6
20260506120104 21 189 9.7 25.7 0.00 0.00 0.00 70 1012.6
20260506120004 21 189 9.7 25.7 0.00 0.00 0.00 69 1012.6
20260506115904 21 191 9.7 22.5 0.00 0.00 0.00 70 1012.6
20260506115804 21 188 9.7 22.5 0.00 0.00 0.00 70 1012.6
20260506115704 21 188 9.7 22.5 0.00 0.00 0.00 70 1012.6
20260506115604 21 192 9.7 22.5 0.00 0.00 0.00 70 1012.6
20260506115505 21 191 9.7 22.5 0.00 0.00 0.00 70 1012.6
20260506115405 21 193 9.7 24.1 0.00 0.00 0.00 70 1012.7
20260506115307 21 196 9.7 24.1 0.00 0.00 0.00 70 1012.7
20260506115204 21 195 9.7 24.1 0.00 0.00 0.00 70 1012.7
20260506115104 21 196 9.7 24.1 0.00 0.00 0.00 70 1012.8
20260506115004 21 195 9.7 24.1 0.00 0.00 0.00 71 1012.7
20260506114908 21 195 9.7 24.1 0.00 0.00 0.00 71 1012.7
20260506114806 21 196 9.7 24.1 0.00 0.00 0.00 71 1012.7
20260506114705 21 194 9.7 24.1 0.00 0.00 0.00 71 1012.7
20260506114605 21 188 9.7 24.1 0.00 0.00 0.00 71 1012.8
20260506114504 21 192 11.3 24.1 0.00 0.00 0.00 71 1012.7
20260506114405 21 191 11.3 20.9 0.00 0.00 0.00 71 1012.7
20260506114304 21 189 11.3 20.9 0.00 0.00 0.00 71 1012.8
20260506114204 21 192 11.3 20.9 0.00 0.00 0.00 71 1012.8
20260506114104 21 193 11.3 20.9 0.00 0.00 0.00 71 1012.8
20260506114004 21 190 11.3 20.9 0.00 0.00 0.00 71 1012.9
20260506113904 21 191 11.3 22.5 0.00 0.00 0.00 71 1012.9
20260506113804 21 189 11.3 24.1 0.00 0.00 0.00 71 1012.9
20260506113704 21 193 11.3 24.1 0.00 0.00 0.00 71 1012.9
20260506113603 21 194 11.3 24.1 0.00 0.00 0.00 70 1012.8
20260506113504 21 195 11.3 24.1 0.00 0.00 0.00 70 1012.9
20260506113404 21 194 11.3 24.1 0.00 0.00 0.00 70 1012.9
20260506113304 21 195 11.3 24.1 0.00 0.00 0.00 70 1012.9
20260506113205 21 193 12.9 24.1 0.00 0.00 0.00 70 1012.9
20260506113110 21 193 12.9 24.1 0.00 0.00 0.00 70 1012.9
20260506113005 21 195 12.9 24.1 0.00 0.00 0.00 70 1012.9
20260506112905 21 196 12.9 24.1 0.00 0.00 0.00 71 1012.9
20260506112805 21 197 12.9 24.1 0.00 0.00 0.00 71 1012.9
20260506112705 21 197 12.9 24.1 0.00 0.00 0.00 71 1012.9
20260506112605 21 197 12.9 24.1 0.00 0.00 0.00 71 1012.9
20260506112506 21 197 14.5 24.1 0.00 0.00 0.00 71 1012.9
20260506112405 21 197 14.5 25.7 0.00 0.00 0.00 72 1012.9
20260506112306 21 198 14.5 25.7 0.00 0.00 0.00 72 1012.9
20260506112205 21 198 14.5 25.7 0.00 0.00 0.00 72 1013.0
20260506112106 21 198 14.5 25.7 0.00 0.00 0.00 72 1013.0
20260506112006 21 198 14.5 25.7 0.00 0.00 0.00 72 1012.8
20260506111905 21 198 12.9 25.7 0.00 0.00 0.00 72 1012.8
20260506111807 21 198 12.9 25.7 0.00 0.00 0.00 73 1012.8
20260506111705 21 197 12.9 25.7 0.00 0.00 0.00 73 1012.8
20260506111605 20 196 12.9 25.7 0.00 0.00 0.00 73 1012.8
20260506111505 20 195 12.9 25.7 0.00 0.00 0.00 73 1012.9
20260506111405 20 196 12.9 25.7 0.00 0.00 0.00 73 1012.8
20260506111305 20 194 12.9 25.7 0.00 0.00 0.00 73 1012.8
20260506111205 20 195 12.9 25.7 0.00 0.00 0.00 73 1012.9
20260506111105 20 196 11.3 25.7 0.00 0.00 0.00 73 1012.9
20260506111005 20 198 11.3 25.7 0.00 0.00 0.00 73 1012.9
20260506110904 20 195 11.3 25.7 0.00 0.00 0.00 73 1013.0
20260506110805 20 194 11.3 25.7 0.00 0.00 0.00 73 1013.0
20260506110705 21 193 11.3 25.7 0.00 0.00 0.00 73 1013.1
20260506110609 21 194 11.3 24.1 0.00 0.00 0.00 72 1013.1
20260506110505 21 195 11.3 24.1 0.00 0.00 0.00 72 1013.1
20260506110406 21 194 11.3 24.1 0.00 0.00 0.00 72 1013.1
20260506110312 21 194 11.3 33.8 0.00 0.00 0.00 72 1013.1
20260506110206 21 194 11.3 33.8 0.00 0.00 0.00 71 1013.1
20260506110104 21 192 11.3 33.8 0.00 0.00 0.00 72 1013.1
20260506110006 21 190 11.3 33.8 0.00 0.00 0.00 72 1013.1
20260506105904 21 193 11.3 33.8 0.00 0.00 0.00 72 1013.1
20260506105804 21 195 11.3 33.8 0.00 0.00 0.00 72 1013.1
20260506105705 21 196 11.3 33.8 0.00 0.00 0.00 72 1013.1
20260506105605 21 195 9.7 33.8 0.00 0.00 0.00 72 1013.0
20260506105505 21 193 9.7 33.8 0.00 0.00 0.00 72 1013.0
20260506105405 21 193 9.7 33.8 0.00 0.00 0.00 72 1013.0
20260506105305 21 193 9.7 22.5 0.00 0.00 0.00 72 1013.0
20260506105204 21 192 9.7 22.5 0.00 0.00 0.00 72 1013.0
20260506105104 21 194 9.7 22.5 0.00 0.00 0.00 72 1013.1
20260506105004 21 195 9.7 22.5 0.00 0.00 0.00 72 1013.1
20260506104906 21 196 9.7 22.5 0.00 0.00 0.00 72 1013.0
20260506104805 21 194 9.7 20.9 0.00 0.00 0.00 73 1013.0
20260506104704 21 193 9.7 20.9 0.00 0.00 0.00 73 1013.0
20260506104605 21 195 9.7 20.9 0.00 0.00 0.00 73 1013.1
20260506104505 21 196 9.7 20.9 0.00 0.00 0.00 73 1013.1
20260506104405 21 197 9.7 20.9 0.00 0.00 0.00 73 1013.1
20260506104304 21 196 11.3 20.9 0.00 0.00 0.00 73 1013.0
20260506104206 21 200 11.3 20.9 0.00 0.00 0.00 73 1013.0
20260506104104 21 198 11.3 20.9 0.00 0.00 0.00 73 1013.1
20260506104005 21 198 11.3 24.1 0.00 0.00 0.00 74 1013.1
20260506103904 21 197 11.3 24.1 0.00 0.00 0.00 74 1013.0
20260506103805 21 199 12.9 24.1 0.00 0.00 0.00 74 1013.0